Observation data for Earth on 02/14/2020      Previous  Date  Next       Current Mesonet Observations  Soil Data  Daily Summary Page  Observations in Plain Language
KEA1 140600Z 12016KT M02/M03 A3025 RMK A01 T10181033  RH  090%=      5-min Rain = 0
KEA1 140601Z 12013KT M02/M03 A3025 RMK A01 T10181033  RH  090%=      5-min Rain = 0
KEA1 140602Z 13013KT M02/M03 A3025 RMK A01 T10181033  RH  090%=      5-min Rain = 0
KEA1 140603Z 13015KT M02/M03 A3025 RMK A01 T10181033  RH  090%=      5-min Rain = 0
KEA1 140604Z 13016KT M02/M03 A3025 RMK A01 T10191033  RH  090%=      5-min Rain = 0
KEA1 140605Z 13013G19KT M02/M03 A3025 RMK A01 T10191034  RH  089%=      5-min Rain = 0
KEA1 140606Z 12017KT M02/M04 A3025 RMK A01 T10201035  RH  089%=      5-min Rain = 0
KEA1 140607Z 12018KT M02/M04 A3025 RMK A01 T10201035  RH  089%=      5-min Rain = 0
KEA1 140608Z 12017KT M02/M04 A3025 RMK A01 T10201035  RH  089%=      5-min Rain = 0
KEA1 140609Z 13015KT M02/M04 A3025 RMK A01 T10201035  RH  089%=      5-min Rain = 0
KEA1 140610Z 13017KT M02/M04 A3025 RMK A01 T10201035  RH  090%=      5-min Rain = 0
KEA1 140611Z 13017KT M02/M04 A3025 RMK A01 T10201035  RH  090%=      5-min Rain = 0
KEA1 140612Z 13016KT M02/M04 A3025 RMK A01 T10201035  RH  090%=      5-min Rain = 0
KEA1 140613Z 13016KT M02/M04 A3025 RMK A01 T10201035  RH  090%=      5-min Rain = 0
KEA1 140614Z 13018KT M02/M04 A3025 RMK A01 T10211035  RH  090%=      5-min Rain = 0
KEA1 140615Z 13016KT M02/M04 A3025 RMK A01 T10211036  RH  090%=      5-min Rain = 0
KEA1 140616Z 13018KT M02/M04 A3025 RMK A01 T10211035  RH  090%=      5-min Rain = 0
KEA1 140617Z 13016KT M02/M04 A3025 RMK A01 T10211035  RH  090%=      5-min Rain = 0
KEA1 140618Z 12016KT M02/M04 A3025 RMK A01 T10221035  RH  091%=      5-min Rain = 0
KEA1 140619Z 12017KT M02/M04 A3025 RMK A01 T10221035  RH  091%=      5-min Rain = 0
KEA1 140620Z 12017KT M02/M03 A3025 RMK A01 T10211034  RH  091%=      5-min Rain = 0
KEA1 140621Z 12017KT M02/M04 A3025 RMK A01 T10221035  RH  091%=      5-min Rain = 0
KEA1 140622Z 13016KT M02/M03 A3025 RMK A01 T10221034  RH  091%=      5-min Rain = 0
KEA1 140623Z 12015KT M02/M03 A3025 RMK A01 T10221034  RH  091%=      5-min Rain = 0
KEA1 140624Z 12017KT M02/M03 A3025 RMK A01 T10221034  RH  092%=      5-min Rain = 0
KEA1 140625Z 13014KT M02/M03 A3025 RMK A01 T10221034  RH  092%=      5-min Rain = 0
KEA1 140626Z 13015G20KT M02/M03 A3025 RMK A01 T10221034  RH  092%=      5-min Rain = 0
KEA1 140627Z 13014KT M02/M03 A3025 RMK A01 T10221034  RH  092%=      5-min Rain = 0
KEA1 140628Z 12014KT M02/M03 A3025 RMK A01 T10221033  RH  092%=      5-min Rain = 0
KEA1 140629Z 13013KT M02/M03 A3025 RMK A01 T10221033  RH  092%=      5-min Rain = 0
KEA1 140630Z 13015KT M02/M03 A3025 RMK A01 T10221033  RH  092%=      5-min Rain = 0
KEA1 140631Z 13014KT M02/M03 A3025 RMK A01 T10221033  RH  092%=      5-min Rain = 0
KEA1 140632Z 12013KT M02/M03 A3025 RMK A01 T10221033  RH  092%=      5-min Rain = 0
KEA1 140633Z 12014KT M02/M03 A3025 RMK A01 T10221033  RH  092%=      5-min Rain = 0
KEA1 140634Z 12016KT M02/M03 A3025 RMK A01 T10231033  RH  092%=      5-min Rain = 0
KEA1 140635Z 12015KT M02/M03 A3025 RMK A01 T10221033  RH  092%=      5-min Rain = 0
KEA1 140636Z 12012KT M02/M03 A3026 RMK A01 T10231034  RH  092%=      5-min Rain = 0
KEA1 140637Z 12014KT M02/M03 A3026 RMK A01 T10231033  RH  093%=      5-min Rain = 0
KEA1 140638Z 12012KT M02/M03 A3026 RMK A01 T10231033  RH  093%=      5-min Rain = 0
KEA1 140639Z 12013KT M02/M03 A3026 RMK A01 T10231033  RH  093%=      5-min Rain = 0
KEA1 140640Z 12013KT M02/M03 A3026 RMK A01 T10231033  RH  093%=      5-min Rain = 0
KEA1 140641Z 12014KT M02/M03 A3026 RMK A01 T10231033  RH  093%=      5-min Rain = 0
KEA1 140642Z 12015KT M02/M03 A3026 RMK A01 T10231033  RH  093%=      5-min Rain = 0
KEA1 140643Z 12015KT M02/M03 A3026 RMK A01 T10231033  RH  093%=      5-min Rain = 0
KEA1 140644Z 12015KT M02/M03 A3026 RMK A01 T10231033  RH  093%=      5-min Rain = 0
KEA1 140645Z 12014KT M02/M03 A3026 RMK A01 T10231033  RH  093%=      5-min Rain = 0
KEA1 140646Z 13011KT M02/M03 A3026 RMK A01 T10231033  RH  093%=      5-min Rain = 0
KEA1 140647Z 13012KT M02/M03 A3026 RMK A01 T10231033  RH  093%=      5-min Rain = 0
KEA1 140648Z 13011KT M02/M03 A3026 RMK A01 T10231032  RH  093%=      5-min Rain = 0
KEA1 140649Z 13011KT M02/M03 A3026 RMK A01 T10231032  RH  093%=      5-min Rain = 0
KEA1 140650Z 13015KT M02/M03 A3026 RMK A01 T10221032  RH  093%=      5-min Rain = 0
KEA1 140651Z 13013KT M02/M03 A3026 RMK A01 T10221032  RH  093%=      5-min Rain = 0
KEA1 140652Z 13014KT M02/M03 A3026 RMK A01 T10221031  RH  094%=      5-min Rain = 0
KEA1 140653Z 13014KT M02/M03 A3026 RMK A01 T10221031  RH  094%=      5-min Rain = 0
KEA1 140654Z 13012KT M02/M03 A3026 RMK A01 T10231031  RH  094%=      5-min Rain = 0
KEA1 140655Z 13014KT M02/M03 A3026 RMK A01 T10221031  RH  094%=      5-min Rain = 0
KEA1 140656Z 13014KT M02/M03 A3026 RMK A01 T10221031  RH  094%=      5-min Rain = 0
KEA1 140657Z 13013KT M02/M03 A3026 RMK A01 T10221031  RH  094%=      5-min Rain = 0
KEA1 140658Z 13011G16KT M02/M03 A3026 RMK A01 T10221031  RH  094%=      5-min Rain = 0
KEA1 140659Z 13014KT M02/M03 A3026 RMK A01 T10221031  RH  094%=      5-min Rain = 0
KEA1 140700Z 13012KT M02/M03 A3026 RMK A01 T10221031  RH  094%=      5-min Rain = 0
KEA1 140701Z 13013KT M02/M03 A3026 RMK A01 T10231031  RH  094%=      5-min Rain = 0
KEA1 140702Z 13010KT M02/M03 A3026 RMK A01 T10221031  RH  094%=      5-min Rain = 0
KEA1 140703Z 13010KT M02/M03 A3026 RMK A01 T10221031  RH  094%=      5-min Rain = 0
KEA1 140704Z 13010KT M02/M03 A3026 RMK A01 T10221030  RH  094%=      5-min Rain = 0
KEA1 140705Z 13010KT M02/M03 A3026 RMK A01 T10221030  RH  094%=      5-min Rain = 0
KEA1 140706Z 13010KT M02/M03 A3026 RMK A01 T10221030  RH  094%=      5-min Rain = 0
KEA1 140707Z 13009KT M02/M03 A3026 RMK A01 T10221030  RH  094%=      5-min Rain = 0
KEA1 140708Z 14012KT M02/M03 A3026 RMK A01 T10221030  RH  094%=      5-min Rain = 0
KEA1 140709Z 14014KT M02/M03 A3026 RMK A01 T10221031  RH  094%=      5-min Rain = 0
KEA1 140710Z 14016KT M02/M03 A3026 RMK A01 T10221031  RH  093%=      5-min Rain = 0
KEA1 140711Z 14016KT M02/M03 A3026 RMK A01 T10221032  RH  093%=      5-min Rain = 0
KEA1 140712Z 14016KT M02/M03 A3026 RMK A01 T10231033  RH  093%=      5-min Rain = 0
KEA1 140713Z 14015KT M02/M03 A3026 RMK A01 T10231033  RH  093%=      5-min Rain = 0
KEA1 140714Z 14016KT M02/M03 A3026 RMK A01 T10231033  RH  093%=      5-min Rain = 0
KEA1 140715Z 14017KT M02/M03 A3026 RMK A01 T10231033  RH  092%=      5-min Rain = 0
KEA1 140716Z 14018KT M02/M03 A3026 RMK A01 T10231033  RH  092%=      5-min Rain = 0
KEA1 140717Z 14016KT M02/M03 A3026 RMK A01 T10231034  RH  092%=      5-min Rain = 0
KEA1 140718Z 14016KT M02/M03 A3026 RMK A01 T10231034  RH  092%=      5-min Rain = 0
KEA1 140719Z 13015KT M02/M03 A3026 RMK A01 T10231034  RH  092%=      5-min Rain = 0
KEA1 140720Z 14016KT M02/M03 A3026 RMK A01 T10231034  RH  092%=      5-min Rain = 0
KEA1 140721Z 13015KT M02/M03 A3026 RMK A01 T10231034  RH  093%=      5-min Rain = 0
KEA1 140722Z 13014KT M02/M03 A3026 RMK A01 T10231034  RH  092%=      5-min Rain = 0
KEA1 140723Z 14014KT M02/M03 A3026 RMK A01 T10231034  RH  092%=      5-min Rain = 0
KEA1 140724Z 14012KT M02/M03 A3026 RMK A01 T10231034  RH  092%=      5-min Rain = 0
KEA1 140725Z 14012KT M02/M03 A3026 RMK A01 T10231034  RH  093%=      5-min Rain = 0
KEA1 140726Z 14012KT M02/M03 A3026 RMK A01 T10231033  RH  093%=      5-min Rain = 0
KEA1 140727Z 14013KT M02/M03 A3026 RMK A01 T10231034  RH  092%=      5-min Rain = 0
KEA1 140728Z 14013KT M02/M03 A3026 RMK A01 T10231033  RH  092%=      5-min Rain = 0
KEA1 140729Z 14012KT M02/M03 A3026 RMK A01 T10231034  RH  092%=      5-min Rain = 0
KEA1 140730Z 15011KT M02/M03 A3026 RMK A01 T10231034  RH  092%=      5-min Rain = 0
KEA1 140731Z 15015KT M02/M03 A3026 RMK A01 T10231034  RH  092%=      5-min Rain = 0
KEA1 140732Z 14016KT M02/M03 A3026 RMK A01 T10231034  RH  092%=      5-min Rain = 0
KEA1 140733Z 15015KT M02/M04 A3026 RMK A01 T10231035  RH  092%=      5-min Rain = 0
KEA1 140734Z 15015KT M02/M04 A3026 RMK A01 T10231035  RH  091%=      5-min Rain = 0
KEA1 140735Z 15016KT M02/M04 A3026 RMK A01 T10231035  RH  091%=      5-min Rain = 0
KEA1 140736Z 15015KT M02/M04 A3026 RMK A01 T10231035  RH  091%=      5-min Rain = 0
KEA1 140737Z 14015KT M02/M04 A3026 RMK A01 T10231035  RH  091%=      5-min Rain = 0
KEA1 140738Z 15018KT M02/M04 A3026 RMK A01 T10231036  RH  091%=      5-min Rain = 0
KEA1 140739Z 14015KT M02/M04 A3026 RMK A01 T10231036  RH  091%=      5-min Rain = 0
KEA1 140740Z 14014KT M02/M04 A3026 RMK A01 T10231036  RH  091%=      5-min Rain = 0
KEA1 140741Z 15015KT M02/M04 A3026 RMK A01 T10231036  RH  091%=      5-min Rain = 0
KEA1 140742Z 14015KT M02/M04 A3026 RMK A01 T10231035  RH  091%=      5-min Rain = 0
KEA1 140743Z 15014KT M02/M04 A3026 RMK A01 T10231036  RH  091%=      5-min Rain = 0
KEA1 140744Z 15015KT M02/M04 A3026 RMK A01 T10231035  RH  091%=      5-min Rain = 0
KEA1 140745Z 15015KT M02/M04 A3026 RMK A01 T10231035  RH  091%=      5-min Rain = 0
KEA1 140746Z 15016KT M02/M04 A3026 RMK A01 T10231036  RH  091%=      5-min Rain = 0
KEA1 140747Z 14015KT M02/M04 A3026 RMK A01 T10231035  RH  091%=      5-min Rain = 0
KEA1 140748Z 14013KT M02/M04 A3026 RMK A01 T10231035  RH  091%=      5-min Rain = 0
KEA1 140749Z 15017KT M02/M04 A3026 RMK A01 T10231035  RH  091%=      5-min Rain = 0
KEA1 140750Z 15014KT M02/M04 A3026 RMK A01 T10231035  RH  091%=      5-min Rain = 0
KEA1 140751Z 15016KT M02/M04 A3026 RMK A01 T10231035  RH  091%=      5-min Rain = 0
KEA1 140752Z 15014KT M02/M04 A3026 RMK A01 T10231036  RH  091%=      5-min Rain = 0
KEA1 140753Z 15011KT M02/M04 A3026 RMK A01 T10231035  RH  091%=      5-min Rain = 0
KEA1 140754Z 14012KT M02/M04 A3026 RMK A01 T10231035  RH  091%=      5-min Rain = 0
KEA1 140755Z 14011KT M02/M04 A3026 RMK A01 T10231035  RH  092%=      5-min Rain = 0
KEA1 140756Z 15013KT M02/M04 A3026 RMK A01 T10231035  RH  092%=      5-min Rain = 0
KEA1 140757Z 14017KT M02/M04 A3026 RMK A01 T10231035  RH  091%=      5-min Rain = 0
KEA1 140758Z 15016KT M02/M04 A3026 RMK A01 T10231036  RH  091%=      5-min Rain = 0
KEA1 140759Z 15015KT M02/M04 A3026 RMK A01 T10231036  RH  091%=      5-min Rain = 0
KEA1 140800Z 15018KT M02/M04 A3026 RMK A01 T10241037  RH  091%=      5-min Rain = 0
KEA1 140801Z 14014KT M02/M04 A3026 RMK A01 T10241037  RH  091%=      5-min Rain = 0
KEA1 140802Z 14013KT M02/M04 A3026 RMK A01 T10241037  RH  091%=      5-min Rain = 0
KEA1 140803Z 15013KT M02/M04 A3026 RMK A01 T10241037  RH  091%=      5-min Rain = 0
KEA1 140804Z 15015KT M02/M04 A3026 RMK A01 T10241037  RH  091%=      5-min Rain = 0
KEA1 140805Z 15014KT M02/M04 A3026 RMK A01 T10241037  RH  091%=      5-min Rain = 0
KEA1 140806Z 14012KT M02/M04 A3027 RMK A01 T10241037  RH  091%=      5-min Rain = 0
KEA1 140807Z 13012KT M02/M04 A3027 RMK A01 T10241036  RH  091%=      5-min Rain = 0
KEA1 140808Z 13010KT M02/M04 A3027 RMK A01 T10241036  RH  091%=      5-min Rain = 0
KEA1 140809Z 14012KT M02/M04 A3027 RMK A01 T10241036  RH  092%=      5-min Rain = 0
KEA1 140810Z 14013KT M02/M04 A3027 RMK A01 T10241036  RH  092%=      5-min Rain = 0
KEA1 140811Z 14014KT M02/M04 A3026 RMK A01 T10241036  RH  092%=      5-min Rain = 0
KEA1 140812Z 14014KT M03/M04 A3026 RMK A01 T10251037  RH  091%=      5-min Rain = 0
KEA1 140813Z 14013KT M03/M04 A3027 RMK A01 T10251037  RH  092%=      5-min Rain = 0
KEA1 140814Z 13010KT M03/M04 A3027 RMK A01 T10251037  RH  092%=      5-min Rain = 0
KEA1 140815Z 13013KT M03/M04 A3027 RMK A01 T10251037  RH  092%=      5-min Rain = 0
KEA1 140816Z 14013KT M03/M04 A3027 RMK A01 T10251037  RH  092%=      5-min Rain = 0
KEA1 140817Z 13013KT M03/M04 A3027 RMK A01 T10251038  RH  091%=      5-min Rain = 0
KEA1 140818Z 13014KT M03/M04 A3027 RMK A01 T10261038  RH  091%=      5-min Rain = 0
KEA1 140819Z 13012KT M03/M04 A3027 RMK A01 T10261038  RH  092%=      5-min Rain = 0
KEA1 140820Z 13013KT M03/M04 A3027 RMK A01 T10261037  RH  092%=      5-min Rain = 0
KEA1 140821Z 13015KT M03/M04 A3027 RMK A01 T10261037  RH  092%=      5-min Rain = 0
KEA1 140822Z 13013KT M03/M04 A3027 RMK A01 T10261037  RH  092%=      5-min Rain = 0
KEA1 140823Z 14013KT M03/M04 A3027 RMK A01 T10261037  RH  092%=      5-min Rain = 0
KEA1 140824Z 14012KT M03/M04 A3027 RMK A01 T10261038  RH  092%=      5-min Rain = 0
KEA1 140825Z 14012KT M03/M04 A3027 RMK A01 T10261038  RH  092%=      5-min Rain = 0
KEA1 140826Z 13010KT M03/M04 A3027 RMK A01 T10261038  RH  092%=      5-min Rain = 0
KEA1 140827Z 12012KT M03/M04 A3027 RMK A01 T10261038  RH  092%=      5-min Rain = 0
KEA1 140828Z 13012KT M03/M04 A3027 RMK A01 T10261038  RH  092%=      5-min Rain = 0
KEA1 140829Z 13013KT M03/M04 A3027 RMK A01 T10261038  RH  092%=      5-min Rain = 0
KEA1 140830Z 13013KT M03/M04 A3027 RMK A01 T10261038  RH  092%=      5-min Rain = 0
KEA1 140831Z 14014KT M03/M04 A3027 RMK A01 T10261038  RH  092%=      5-min Rain = 0
KEA1 140832Z 15015KT M03/M04 A3027 RMK A01 T10271038  RH  092%=      5-min Rain = 0
KEA1 140833Z 15013KT M03/M04 A3027 RMK A01 T10271038  RH  092%=      5-min Rain = 0
KEA1 140834Z 14011KT M03/M04 A3027 RMK A01 T10271038  RH  092%=      5-min Rain = 0
KEA1 140835Z 14012KT M03/M04 A3027 RMK A01 T10271038  RH  092%=      5-min Rain = 0
KEA1 140836Z 13013KT M03/M04 A3027 RMK A01 T10271038  RH  092%=      5-min Rain = 0
KEA1 140837Z 13013KT M03/M04 A3027 RMK A01 T10271038  RH  092%=      5-min Rain = 0
KEA1 140838Z 14010KT M03/M04 A3027 RMK A01 T10271038  RH  092%=      5-min Rain = 0
KEA1 140839Z 14011KT M03/M04 A3027 RMK A01 T10271038  RH  092%=      5-min Rain = 0
KEA1 140840Z 14012KT M03/M04 A3027 RMK A01 T10271038  RH  092%=      5-min Rain = 0
KEA1 140841Z 14013KT M03/M04 A3027 RMK A01 T10271038  RH  092%=      5-min Rain = 0
KEA1 140842Z 14011KT M03/M04 A3027 RMK A01 T10271038  RH  092%=      5-min Rain = 0
KEA1 140843Z 14010KT M03/M04 A3027 RMK A01 T10271039  RH  092%=      5-min Rain = 0
KEA1 140844Z 14010KT M03/M04 A3027 RMK A01 T10271038  RH  092%=      5-min Rain = 0
KEA1 140845Z 14012KT M03/M04 A3027 RMK A01 T10281039  RH  092%=      5-min Rain = 0
KEA1 140846Z 14012KT M03/M04 A3027 RMK A01 T10281039  RH  092%=      5-min Rain = 0
KEA1 140847Z 13011KT M03/M04 A3027 RMK A01 T10271039  RH  092%=      5-min Rain = 0
KEA1 140848Z 14012KT M03/M04 A3027 RMK A01 T10271038  RH  092%=      5-min Rain = 0
KEA1 140849Z 14011KT M03/M04 A3027 RMK A01 T10281039  RH  092%=      5-min Rain = 0
KEA1 140850Z 14013KT M03/M04 A3027 RMK A01 T10281039  RH  092%=      5-min Rain = 0
KEA1 140851Z 14011KT M03/M04 A3027 RMK A01 T10271039  RH  092%=      5-min Rain = 0
KEA1 140852Z 15010KT M03/M04 A3027 RMK A01 T10271039  RH  092%=      5-min Rain = 0
KEA1 140853Z 14011KT M03/M04 A3027 RMK A01 T10271038  RH  092%=      5-min Rain = 0
KEA1 140854Z 14013KT M03/M04 A3027 RMK A01 T10281039  RH  092%=      5-min Rain = 0
KEA1 140855Z 14012KT M03/M04 A3027 RMK A01 T10281039  RH  092%=      5-min Rain = 0
KEA1 140856Z 13010KT M03/M04 A3027 RMK A01 T10271039  RH  092%=      5-min Rain = 0
KEA1 140857Z 14009KT M03/M04 A3027 RMK A01 T10281039  RH  092%=      5-min Rain = 0
KEA1 140858Z 14010KT M03/M04 A3027 RMK A01 T10281039  RH  092%=      5-min Rain = 0
KEA1 140859Z 14013KT M03/M04 A3027 RMK A01 T10281039  RH  092%=      5-min Rain = 0
KEA1 140900Z 14014KT M03/M04 A3027 RMK A01 T10281039  RH  092%=      5-min Rain = 0
KEA1 140901Z 14013KT M03/M04 A3027 RMK A01 T10281040  RH  092%=      5-min Rain = 0
KEA1 140902Z 14012KT M03/M04 A3027 RMK A01 T10281040  RH  092%=      5-min Rain = 0
KEA1 140903Z 14013KT M03/M04 A3027 RMK A01 T10281040  RH  092%=      5-min Rain = 0
KEA1 140904Z 14014KT M03/M04 A3027 RMK A01 T10281039  RH  092%=      5-min Rain = 0
KEA1 140905Z 14013KT M03/M04 A3027 RMK A01 T10291040  RH  092%=      5-min Rain = 0
KEA1 140906Z 14012KT M03/M04 A3027 RMK A01 T10291040  RH  092%=      5-min Rain = 0
KEA1 140907Z 14011KT M03/M04 A3027 RMK A01 T10291040  RH  092%=      5-min Rain = 0
KEA1 140908Z 14012KT M03/M04 A3027 RMK A01 T10281040  RH  092%=      5-min Rain = 0
KEA1 140909Z 13012KT M03/M04 A3027 RMK A01 T10291040  RH  092%=      5-min Rain = 0
KEA1 140910Z 14012KT M03/M04 A3027 RMK A01 T10291041  RH  091%=      5-min Rain = 0
KEA1 140911Z 15009KT M03/M04 A3027 RMK A01 T10291041  RH  091%=      5-min Rain = 0
KEA1 140912Z 14011KT M03/M04 A3027 RMK A01 T10291041  RH  091%=      5-min Rain = 0
KEA1 140913Z 14010KT M03/M04 A3027 RMK A01 T10291041  RH  091%=      5-min Rain = 0
KEA1 140914Z 14011KT M03/M04 A3027 RMK A01 T10291041  RH  091%=      5-min Rain = 0
KEA1 140915Z 14012KT M03/M04 A3027 RMK A01 T10291042  RH  091%=      5-min Rain = 0
KEA1 140916Z 14012KT M03/M04 A3027 RMK A01 T10291042  RH  091%=      5-min Rain = 0
KEA1 140917Z 13012KT M03/M04 A3027 RMK A01 T10291042  RH  090%=      5-min Rain = 0
KEA1 140918Z 14012KT M03/M04 A3027 RMK A01 T10291043  RH  090%=      5-min Rain = 0
KEA1 140919Z 14011KT M03/M04 A3027 RMK A01 T10291043  RH  090%=      5-min Rain = 0
KEA1 140920Z 14013KT M03/M04 A3027 RMK A01 T10281043  RH  090%=      5-min Rain = 0
KEA1 140921Z 14012KT M03/M04 A3027 RMK A01 T10291043  RH  090%=      5-min Rain = 0
KEA1 140922Z 14012KT M03/M04 A3027 RMK A01 T10291044  RH  089%=      5-min Rain = 0
KEA1 140923Z 14015KT M03/M05 A3027 RMK A01 T10291045  RH  089%=      5-min Rain = 0
KEA1 140924Z 14014KT M03/M05 A3027 RMK A01 T10291045  RH  089%=      5-min Rain = 0
KEA1 140925Z 14014KT M03/M05 A3027 RMK A01 T10301046  RH  089%=      5-min Rain = 0
KEA1 140926Z 14011KT M03/M05 A3027 RMK A01 T10301046  RH  089%=      5-min Rain = 0
KEA1 140927Z 14013KT M03/M05 A3026 RMK A01 T10301045  RH  089%=      5-min Rain = 0
KEA1 140928Z 14013KT M03/M05 A3027 RMK A01 T10301046  RH  089%=      5-min Rain = 0
KEA1 140929Z 13013KT M03/M05 A3026 RMK A01 T10301046  RH  089%=      5-min Rain = 0
KEA1 140930Z 13013KT M03/M05 A3027 RMK A01 T10301046  RH  089%=      5-min Rain = 0
KEA1 140931Z 13011KT M03/M05 A3027 RMK A01 T10311047  RH  089%=      5-min Rain = 0
KEA1 140932Z 13013KT M03/M05 A3027 RMK A01 T10311047  RH  089%=      5-min Rain = 0
KEA1 140933Z 14013KT M03/M05 A3027 RMK A01 T10311047  RH  089%=      5-min Rain = 0
KEA1 140934Z 14012KT M03/M05 A3026 RMK A01 T10311047  RH  089%=      5-min Rain = 0
KEA1 140935Z 14012KT M03/M05 A3026 RMK A01 T10311047  RH  089%=      5-min Rain = 0
KEA1 140936Z 14012KT M03/M05 A3026 RMK A01 T10311046  RH  089%=      5-min Rain = 0
KEA1 140937Z 14012KT M03/M05 A3026 RMK A01 T10311047  RH  089%=      5-min Rain = 0
KEA1 140938Z 14014KT M03/M05 A3026 RMK A01 T10311047  RH  089%=      5-min Rain = 0
KEA1 140939Z 14012KT M03/M05 A3026 RMK A01 T10311047  RH  089%=      5-min Rain = 0
KEA1 140940Z 14012KT M03/M05 A3026 RMK A01 T10311047  RH  089%=      5-min Rain = 0
KEA1 140941Z 14013KT M03/M05 A3026 RMK A01 T10311046  RH  089%=      5-min Rain = 0
KEA1 140942Z 14013KT M03/M05 A3026 RMK A01 T10311046  RH  089%=      5-min Rain = 0
KEA1 140943Z 14013KT M03/M05 A3026 RMK A01 T10311046  RH  089%=      5-min Rain = 0
KEA1 140944Z 14013KT M03/M05 A3026 RMK A01 T10311046  RH  090%=      5-min Rain = 0
KEA1 140945Z 14013KT M03/M05 A3026 RMK A01 T10321046  RH  090%=      5-min Rain = 0
KEA1 140946Z 14013KT M03/M05 A3026 RMK A01 T10311046  RH  090%=      5-min Rain = 0
KEA1 140947Z 14011KT M03/M05 A3026 RMK A01 T10311046  RH  090%=      5-min Rain = 0
KEA1 140948Z 14011KT M03/M05 A3026 RMK A01 T10321046  RH  090%=      5-min Rain = 0
KEA1 140949Z 14011KT M03/M05 A3026 RMK A01 T10321046  RH  090%=      5-min Rain = 0
KEA1 140950Z 14012KT M03/M05 A3026 RMK A01 T10311046  RH  090%=      5-min Rain = 0
KEA1 140951Z 14011KT M03/M05 A3026 RMK A01 T10311045  RH  090%=      5-min Rain = 0
KEA1 140952Z 14010KT M03/M05 A3026 RMK A01 T10311045  RH  090%=      5-min Rain = 0
KEA1 140953Z 13010KT M03/M05 A3026 RMK A01 T10321046  RH  090%=      5-min Rain = 0
KEA1 140954Z 14009KT M03/M05 A3026 RMK A01 T10321046  RH  090%=      5-min Rain = 0
KEA1 140955Z 14010KT M03/M05 A3026 RMK A01 T10321046  RH  090%=      5-min Rain = 0
KEA1 140956Z 15012KT M03/M05 A3026 RMK A01 T10311045  RH  090%=      5-min Rain = 0
KEA1 140957Z 14012KT M03/M05 A3026 RMK A01 T10311046  RH  090%=      5-min Rain = 0
KEA1 140958Z 14012KT M03/M05 A3026 RMK A01 T10311046  RH  090%=      5-min Rain = 0
KEA1 140959Z 14014KT M03/M05 A3026 RMK A01 T10321046  RH  090%=      5-min Rain = 0
KEA1 141000Z 14014KT M03/M05 A3026 RMK A01 T10321046  RH  090%=      5-min Rain = 0
KEA1 141001Z 14012KT M03/M05 A3026 RMK A01 T10321046  RH  090%=      5-min Rain = 0
KEA1 141002Z 15013KT M03/M05 A3026 RMK A01 T10321046  RH  090%=      5-min Rain = 0
KEA1 141003Z 14013KT M03/M05 A3026 RMK A01 T10321046  RH  090%=      5-min Rain = 0
KEA1 141004Z 15012KT M03/M05 A3026 RMK A01 T10321046  RH  090%=      5-min Rain = 0
KEA1 141005Z 14011KT M03/M05 A3026 RMK A01 T10331046  RH  090%=      5-min Rain = 0
KEA1 141006Z 14009KT M03/M05 A3026 RMK A01 T10321046  RH  090%=      5-min Rain = 0
KEA1 141007Z 14010KT M03/M05 A3026 RMK A01 T10321045  RH  091%=      5-min Rain = 0
KEA1 141008Z 14012KT M03/M05 A3026 RMK A01 T10321045  RH  091%=      5-min Rain = 0
KEA1 141009Z 14011KT M03/M05 A3026 RMK A01 T10321045  RH  091%=      5-min Rain = 0
KEA1 141010Z 14013KT M03/M05 A3026 RMK A01 T10321046  RH  091%=      5-min Rain = 0
KEA1 141011Z 14011KT M03/M05 A3026 RMK A01 T10321046  RH  091%=      5-min Rain = 0
KEA1 141012Z 14011KT M03/M05 A3026 RMK A01 T10331046  RH  091%=      5-min Rain = 0
KEA1 141013Z 14011KT M03/M05 A3026 RMK A01 T10321045  RH  091%=      5-min Rain = 0
KEA1 141014Z 14014KT M03/M05 A3026 RMK A01 T10321045  RH  091%=      5-min Rain = 0
KEA1 141015Z 14013KT M03/M05 A3026 RMK A01 T10331046  RH  091%=      5-min Rain = 0
KEA1 141016Z 14013KT M03/M05 A3026 RMK A01 T10341047  RH  091%=      5-min Rain = 0
KEA1 141017Z 14013KT M03/M05 A3026 RMK A01 T10341047  RH  091%=      5-min Rain = 0
KEA1 141018Z 14010KT M03/M05 A3026 RMK A01 T10341046  RH  091%=      5-min Rain = 0
KEA1 141019Z 14011KT M03/M05 A3026 RMK A01 T10341046  RH  092%=      5-min Rain = 0
KEA1 141020Z 13011KT M03/M05 A3026 RMK A01 T10341046  RH  092%=      5-min Rain = 0
KEA1 141021Z 14009KT M03/M05 A3026 RMK A01 T10341046  RH  092%=      5-min Rain = 0
KEA1 141022Z 13012KT M03/M05 A3026 RMK A01 T10341046  RH  092%=      5-min Rain = 0
KEA1 141023Z 13014KT M03/M05 A3026 RMK A01 T10341045  RH  092%=      5-min Rain = 0
KEA1 141024Z 14012KT M03/M05 A3026 RMK A01 T10341045  RH  092%=      5-min Rain = 0
KEA1 141025Z 14013KT M04/M05 A3026 RMK A01 T10351046  RH  092%=      5-min Rain = 0
KEA1 141026Z 14013KT M04/M05 A3026 RMK A01 T10351045  RH  092%=      5-min Rain = 0
KEA1 141027Z 14014KT M04/M05 A3026 RMK A01 T10351045  RH  092%=      5-min Rain = 0
KEA1 141028Z 14013KT M04/M05 A3026 RMK A01 T10351045  RH  092%=      5-min Rain = 0
KEA1 141029Z 15009KT M04/M05 A3026 RMK A01 T10351045  RH  093%=      5-min Rain = 0
KEA1 141030Z 15013KT M03/M04 A3026 RMK A01 T10341044  RH  093%=      5-min Rain = 0
KEA1 141031Z 14013KT M03/M05 A3026 RMK A01 T10341045  RH  093%=      5-min Rain = 0
KEA1 141032Z 14012KT M04/M05 A3026 RMK A01 T10351045  RH  093%=      5-min Rain = 0
KEA1 141033Z 14014KT M04/M05 A3026 RMK A01 T10351045  RH  093%=      5-min Rain = 0
KEA1 141034Z 14012KT M04/M05 A3026 RMK A01 T10351045  RH  093%=      5-min Rain = 0
KEA1 141035Z 15014KT M04/M05 A3026 RMK A01 T10351045  RH  093%=      5-min Rain = 0
KEA1 141036Z 15012KT M04/M05 A3026 RMK A01 T10351045  RH  093%=      5-min Rain = 0
KEA1 141037Z 15014KT M04/M05 A3026 RMK A01 T10351045  RH  093%=      5-min Rain = 0
KEA1 141038Z 14013KT M04/M05 A3026 RMK A01 T10351045  RH  093%=      5-min Rain = 0
KEA1 141039Z 15012KT M04/M05 A3026 RMK A01 T10351045  RH  093%=      5-min Rain = 0
KEA1 141040Z 14010KT M04/M05 A3026 RMK A01 T10351045  RH  093%=      5-min Rain = 0
KEA1 141041Z 15015KT M04/M04 A3026 RMK A01 T10351044  RH  093%=      5-min Rain = 0
KEA1 141042Z 15013KT M04/M04 A3026 RMK A01 T10351044  RH  093%=      5-min Rain = 0
KEA1 141043Z 15014KT M04/M04 A3026 RMK A01 T10351044  RH  093%=      5-min Rain = 0
KEA1 141044Z 15014KT M04/M04 A3026 RMK A01 T10351044  RH  094%=      5-min Rain = 0
KEA1 141045Z 15014KT M04/M04 A3026 RMK A01 T10351043  RH  094%=      5-min Rain = 0
KEA1 141046Z 15014KT M04/M04 A3026 RMK A01 T10351043  RH  094%=      5-min Rain = 0
KEA1 141047Z 15013KT M04/M04 A3026 RMK A01 T10361043  RH  095%=      5-min Rain = 0
KEA1 141048Z 15014KT M04/M04 A3026 RMK A01 T10361043  RH  095%=      5-min Rain = 0
KEA1 141049Z 15014KT M04/M04 A3026 RMK A01 T10361043  RH  095%=      5-min Rain = 0
KEA1 141050Z 14014KT M04/M04 A3026 RMK A01 T10361043  RH  095%=      5-min Rain = 0
KEA1 141051Z 14012KT M04/M04 A3026 RMK A01 T10361043  RH  095%=      5-min Rain = 0
KEA1 141052Z 14011KT M04/M04 A3026 RMK A01 T10361042  RH  095%=      5-min Rain = 0
KEA1 141053Z 15015KT M04/M04 A3026 RMK A01 T10361042  RH  096%=      5-min Rain = 0
KEA1 141054Z 14015KT M04/M04 A3026 RMK A01 T10361042  RH  096%=      5-min Rain = 0
KEA1 141055Z 15014KT M04/M04 A3026 RMK A01 T10361042  RH  096%=      5-min Rain = 0
KEA1 141056Z 15011KT M04/M04 A3026 RMK A01 T10361043  RH  096%=      5-min Rain = 0
KEA1 141057Z 14011KT M04/M04 A3026 RMK A01 T10371043  RH  096%=      5-min Rain = 0
KEA1 141058Z 15011KT M04/M04 A3026 RMK A01 T10361042  RH  096%=      5-min Rain = 0
KEA1 141059Z 15012KT M04/M04 A3026 RMK A01 T10361042  RH  096%=      5-min Rain = 0
KEA1 141100Z 15010KT M04/M04 A3026 RMK A01 T10361042  RH  096%=      5-min Rain = 0
KEA1 141101Z 15012KT M04/M04 A3026 RMK A01 T10361042  RH  096%=      5-min Rain = 0
KEA1 141102Z 14013KT M04/M04 A3026 RMK A01 T10361043  RH  096%=      5-min Rain = 0
KEA1 141103Z 14011KT M04/M04 A3026 RMK A01 T10361042  RH  095%=      5-min Rain = 0
KEA1 141104Z 15012KT M04/M04 A3026 RMK A01 T10371043  RH  095%=      5-min Rain = 0
KEA1 141105Z 14012KT M04/M04 A3026 RMK A01 T10361043  RH  096%=      5-min Rain = 0
KEA1 141106Z 14013KT M04/M04 A3026 RMK A01 T10361043  RH  096%=      5-min Rain = 0
KEA1 141107Z 14011KT M04/M04 A3026 RMK A01 T10371043  RH  096%=      5-min Rain = 0
KEA1 141108Z 14009KT M04/M04 A3026 RMK A01 T10371043  RH  096%=      5-min Rain = 0
KEA1 141109Z 15011KT M04/M04 A3026 RMK A01 T10371042  RH  096%=      5-min Rain = 0
KEA1 141110Z 15012KT M04/M04 A3025 RMK A01 T10371043  RH  096%=      5-min Rain = 0
KEA1 141111Z 15012KT M04/M04 A3026 RMK A01 T10371043  RH  096%=      5-min Rain = 0
KEA1 141112Z 15013KT M04/M04 A3025 RMK A01 T10371043  RH  096%=      5-min Rain = 0
KEA1 141113Z 15013KT M04/M04 A3025 RMK A01 T10371043  RH  096%=      5-min Rain = 0
KEA1 141114Z 14012KT M04/M04 A3026 RMK A01 T10381044  RH  096%=      5-min Rain = 0
KEA1 141115Z 14013KT M04/M04 A3026 RMK A01 T10381044  RH  096%=      5-min Rain = 0
KEA1 141116Z 14011KT M04/M04 A3026 RMK A01 T10371043  RH  096%=      5-min Rain = 0
KEA1 141117Z 14009KT M04/M04 A3026 RMK A01 T10371043  RH  096%=      5-min Rain = 0
KEA1 141118Z 14010KT M04/M04 A3026 RMK A01 T10371043  RH  096%=      5-min Rain = 0
KEA1 141119Z 15011KT M04/M04 A3025 RMK A01 T10371043  RH  096%=      5-min Rain = 0
KEA1 141120Z 15011KT M04/M04 A3025 RMK A01 T10371043  RH  096%=      5-min Rain = 0
KEA1 141121Z 15011KT M04/M04 A3025 RMK A01 T10371043  RH  096%=      5-min Rain = 0
KEA1 141122Z 15012KT M04/M04 A3025 RMK A01 T10371043  RH  096%=      5-min Rain = 0
KEA1 141123Z 15011KT M04/M04 A3025 RMK A01 T10371043  RH  096%=      5-min Rain = 0
KEA1 141124Z 15012KT M04/M04 A3025 RMK A01 T10371043  RH  096%=      5-min Rain = 0
KEA1 141125Z 14013KT M04/M04 A3026 RMK A01 T10371043  RH  096%=      5-min Rain = 0
KEA1 141126Z 15012KT M04/M04 A3025 RMK A01 T10371043  RH  096%=      5-min Rain = 0
KEA1 141127Z 15009KT M04/M04 A3025 RMK A01 T10371042  RH  096%=      5-min Rain = 0
KEA1 141128Z 15009KT M04/M04 A3026 RMK A01 T10371042  RH  096%=      5-min Rain = 0
KEA1 141129Z 14011KT M04/M04 A3025 RMK A01 T10371042  RH  096%=      5-min Rain = 0
KEA1 141130Z 15010KT M04/M04 A3026 RMK A01 T10361042  RH  096%=      5-min Rain = 0
KEA1 141131Z 14010KT M04/M04 A3026 RMK A01 T10361042  RH  096%=      5-min Rain = 0
KEA1 141132Z 14009KT M04/M04 A3026 RMK A01 T10361041  RH  096%=      5-min Rain = 0
KEA1 141133Z 14010KT M04/M04 A3026 RMK A01 T10361041  RH  096%=      5-min Rain = 0
KEA1 141134Z 14011KT M04/M04 A3026 RMK A01 T10361041  RH  096%=      5-min Rain = 0
KEA1 141135Z 15012KT M04/M04 A3026 RMK A01 T10361041  RH  096%=      5-min Rain = 0
KEA1 141136Z 15011KT M04/M04 A3025 RMK A01 T10361041  RH  096%=      5-min Rain = 0
KEA1 141137Z 15012KT M04/M04 A3025 RMK A01 T10361041  RH  096%=      5-min Rain = 0
KEA1 141138Z 15012KT M04/M04 A3025 RMK A01 T10361042  RH  096%=      5-min Rain = 0
KEA1 141139Z 15012KT M04/M04 A3025 RMK A01 T10351041  RH  096%=      5-min Rain = 0
KEA1 141140Z 15011KT M04/M04 A3025 RMK A01 T10361041  RH  096%=      5-min Rain = 0
KEA1 141141Z 15011KT M04/M04 A3025 RMK A01 T10351041  RH  096%=      5-min Rain = 0
KEA1 141142Z 15010KT M04/M04 A3026 RMK A01 T10351041  RH  096%=      5-min Rain = 0
KEA1 141143Z 15009KT M04/M04 A3026 RMK A01 T10351041  RH  096%=      5-min Rain = 0
KEA1 141144Z 15009KT M04/M04 A3026 RMK A01 T10351040  RH  096%=      5-min Rain = 0
KEA1 141145Z 15011KT M04/M04 A3026 RMK A01 T10351040  RH  096%=      5-min Rain = 0
KEA1 141146Z 15009KT M04/M04 A3026 RMK A01 T10351040  RH  096%=      5-min Rain = 0
KEA1 141147Z 15010KT M03/M04 A3026 RMK A01 T10341040  RH  096%=      5-min Rain = 0
KEA1 141148Z 15011KT M03/M04 A3026 RMK A01 T10341040  RH  096%=      5-min Rain = 0
KEA1 141149Z 15010KT M03/M04 A3026 RMK A01 T10341040  RH  096%=      5-min Rain = 0
KEA1 141150Z 15008KT M03/M04 A3026 RMK A01 T10341039  RH  096%=      5-min Rain = 0
KEA1 141151Z 15010KT M03/M04 A3026 RMK A01 T10341039  RH  096%=      5-min Rain = 0
KEA1 141152Z 15009KT M03/M04 A3026 RMK A01 T10331039  RH  096%=      5-min Rain = 0
KEA1 141153Z 15012KT M03/M04 A3026 RMK A01 T10331039  RH  096%=      5-min Rain = 0
KEA1 141154Z 15009KT M03/M04 A3026 RMK A01 T10341039  RH  096%=      5-min Rain = 0
KEA1 141155Z 15008KT M03/M04 A3026 RMK A01 T10331039  RH  096%=      5-min Rain = 0
KEA1 141156Z 15008KT M03/M04 A3026 RMK A01 T10331039  RH  096%=      5-min Rain = 0
KEA1 141157Z 15009KT M03/M04 A3026 RMK A01 T10331039  RH  096%=      5-min Rain = 0
KEA1 141158Z 15010KT M03/M04 A3026 RMK A01 T10321038  RH  096%=      5-min Rain = 0
KEA1 141159Z 16010KT M03/M04 A3026 RMK A01 T10321038  RH  096%=      5-min Rain = 0
KEA1 141200Z 17010KT M03/M04 A3026 RMK A01 T10331038  RH  096%=      5-min Rain = 0
KEA1 141201Z 17009KT M03/M04 A3026 RMK A01 T10321037  RH  096%=      5-min Rain = 0
KEA1 141202Z 17010KT M03/M04 A3026 RMK A01 T10321037  RH  096%=      5-min Rain = 0
KEA1 141203Z 16011KT M03/M04 A3025 RMK A01 T10311037  RH  096%=      5-min Rain = 0
KEA1 141204Z 16010KT M03/M04 A3026 RMK A01 T10311036  RH  096%=      5-min Rain = 0
KEA1 141205Z 16011KT M03/M04 A3026 RMK A01 T10311037  RH  096%=      5-min Rain = 0
KEA1 141206Z 16012KT M03/M04 A3025 RMK A01 T10301036  RH  096%=      5-min Rain = 0
KEA1 141207Z 16011KT M03/M04 A3026 RMK A01 T10311036  RH  096%=      5-min Rain = 0
KEA1 141208Z 15010KT M03/M04 A3026 RMK A01 T10311036  RH  096%=      5-min Rain = 0
KEA1 141209Z 16011KT M03/M04 A3026 RMK A01 T10301035  RH  096%=      5-min Rain = 0
KEA1 141210Z 15012KT M03/M04 A3026 RMK A01 T10301035  RH  096%=      5-min Rain = 0
KEA1 141211Z 15015KT M03/M04 A3025 RMK A01 T10301036  RH  096%=      5-min Rain = 0
KEA1 141212Z 16014KT M03/M04 A3026 RMK A01 T10301036  RH  096%=      5-min Rain = 0
KEA1 141213Z 16014KT M03/M04 A3025 RMK A01 T10301036  RH  096%=      5-min Rain = 0
KEA1 141214Z 15013KT M03/M04 A3026 RMK A01 T10301036  RH  096%=      5-min Rain = 0
KEA1 141215Z 16013KT M03/M04 A3026 RMK A01 T10301036  RH  096%=      5-min Rain = 0
KEA1 141216Z 16014KT M03/M04 A3025 RMK A01 T10301036  RH  096%=      5-min Rain = 0
KEA1 141217Z 16013KT M03/M04 A3026 RMK A01 T10301036  RH  096%=      5-min Rain = 0
KEA1 141218Z 16015KT M03/M04 A3025 RMK A01 T10301036  RH  096%=      5-min Rain = 0
KEA1 141219Z 16014KT M03/M04 A3026 RMK A01 T10311036  RH  096%=      5-min Rain = 0
KEA1 141220Z 16012KT M03/M04 A3026 RMK A01 T10311036  RH  096%=      5-min Rain = 0
KEA1 141221Z 16011KT M03/M04 A3026 RMK A01 T10311036  RH  096%=      5-min Rain = 0
KEA1 141222Z 16011KT M03/M04 A3026 RMK A01 T10301036  RH  096%=      5-min Rain = 0
KEA1 141223Z 16012KT M03/M04 A3026 RMK A01 T10301036  RH  096%=      5-min Rain = 0
KEA1 141224Z 15013KT M03/M04 A3026 RMK A01 T10301036  RH  096%=      5-min Rain = 0
KEA1 141225Z 16010KT M03/M04 A3026 RMK A01 T10301036  RH  096%=      5-min Rain = 0
KEA1 141226Z 16011KT M03/M04 A3026 RMK A01 T10301035  RH  096%=      5-min Rain = 0
KEA1 141227Z 16013KT M03/M04 A3025 RMK A01 T10301035  RH  096%=      5-min Rain = 0
KEA1 141228Z 17012KT M03/M04 A3026 RMK A01 T10301035  RH  096%=      5-min Rain = 0
KEA1 141229Z 16014KT M03/M04 A3025 RMK A01 T10301035  RH  096%=      5-min Rain = 0
KEA1 141230Z 16015KT M03/M04 A3025 RMK A01 T10301035  RH  096%=      5-min Rain = 0
KEA1 141231Z 16013KT M03/M04 A3025 RMK A01 T10301035  RH  096%=      5-min Rain = 0
KEA1 141232Z 16013KT M03/M04 A3025 RMK A01 T10301035  RH  096%=      5-min Rain = 0
KEA1 141233Z 16011KT M03/M04 A3026 RMK A01 T10301035  RH  096%=      5-min Rain = 0
KEA1 141234Z 16011KT M03/M04 A3026 RMK A01 T10291035  RH  096%=      5-min Rain = 0
KEA1 141235Z 16010KT M03/M04 A3026 RMK A01 T10291035  RH  096%=      5-min Rain = 0
KEA1 141236Z 16012KT M03/M03 A3026 RMK A01 T10291034  RH  096%=      5-min Rain = 0
KEA1 141237Z 16014KT M03/M03 A3026 RMK A01 T10291034  RH  096%=      5-min Rain = 0
KEA1 141238Z 16013KT M03/M03 A3026 RMK A01 T10291034  RH  096%=      5-min Rain = 0
KEA1 141239Z 16010KT M03/M03 A3026 RMK A01 T10291034  RH  096%=      5-min Rain = 0
KEA1 141240Z 16012KT M03/M03 A3025 RMK A01 T10291034  RH  096%=      5-min Rain = 0
KEA1 141241Z 16011KT M03/M03 A3026 RMK A01 T10291034  RH  096%=      5-min Rain = 0
KEA1 141242Z 15012KT M03/M03 A3026 RMK A01 T10291034  RH  096%=      5-min Rain = 0
KEA1 141243Z 16012KT M03/M03 A3026 RMK A01 T10291034  RH  096%=      5-min Rain = 0
KEA1 141244Z 17014KT M03/M03 A3026 RMK A01 T10291034  RH  096%=      5-min Rain = 0
KEA1 141245Z 16012KT M03/M03 A3026 RMK A01 T10291034  RH  096%=      5-min Rain = 0
KEA1 141246Z 16012KT M03/M03 A3026 RMK A01 T10291034  RH  096%=      5-min Rain = 0
KEA1 141247Z 16011KT M03/M03 A3026 RMK A01 T10291034  RH  096%=      5-min Rain = 0
KEA1 141248Z 15012KT M03/M03 A3026 RMK A01 T10291034  RH  096%=      5-min Rain = 0
KEA1 141249Z 16014KT M03/M03 A3026 RMK A01 T10281034  RH  096%=      5-min Rain = 0
KEA1 141250Z 16012KT M03/M03 A3026 RMK A01 T10281034  RH  096%=      5-min Rain = 0
KEA1 141251Z 16011KT M03/M03 A3026 RMK A01 T10281034  RH  096%=      5-min Rain = 0
KEA1 141252Z 16012KT M03/M03 A3026 RMK A01 T10281034  RH  096%=      5-min Rain = 0
KEA1 141253Z 16012KT M03/M03 A3026 RMK A01 T10281033  RH  096%=      5-min Rain = 0
KEA1 141254Z 16011KT M03/M03 A3026 RMK A01 T10281033  RH  096%=      5-min Rain = 0
KEA1 141255Z 16012KT M03/M03 A3026 RMK A01 T10281033  RH  096%=      5-min Rain = 0
KEA1 141256Z 17013KT M03/M03 A3025 RMK A01 T10281033  RH  096%=      5-min Rain = 0
KEA1 141257Z 16011KT M03/M03 A3026 RMK A01 T10281033  RH  096%=      5-min Rain = 0
KEA1 141258Z 17011KT M03/M03 A3026 RMK A01 T10271033  RH  096%=      5-min Rain = 0
KEA1 141259Z 17011KT M03/M03 A3026 RMK A01 T10281033  RH  096%=      5-min Rain = 0
KEA1 141300Z 16011KT M03/M03 A3026 RMK A01 T10271033  RH  096%=      5-min Rain = 0
KEA1 141301Z 16011KT M03/M03 A3026 RMK A01 T10271033  RH  096%=      5-min Rain = 0
KEA1 141302Z 17013KT M03/M03 A3026 RMK A01 T10271032  RH  096%=      5-min Rain = 0
KEA1 141303Z 16013KT M03/M03 A3026 RMK A01 T10271032  RH  096%=      5-min Rain = 0
KEA1 141304Z 16014KT M03/M03 A3026 RMK A01 T10271032  RH  096%=      5-min Rain = 0
KEA1 141305Z 17012KT M03/M03 A3026 RMK A01 T10271032  RH  096%=      5-min Rain = 0
KEA1 141306Z 17014KT M03/M03 A3026 RMK A01 T10271032  RH  096%=      5-min Rain = 0
KEA1 141307Z 17010KT M03/M03 A3026 RMK A01 T10271032  RH  096%=      5-min Rain = 0
KEA1 141308Z 16013KT M03/M03 A3026 RMK A01 T10271032  RH  096%=      5-min Rain = 0
KEA1 141309Z 16014KT M03/M03 A3026 RMK A01 T10271032  RH  096%=      5-min Rain = 0
KEA1 141310Z 16012KT M03/M03 A3026 RMK A01 T10271032  RH  096%=      5-min Rain = 0
KEA1 141311Z 17012KT M03/M03 A3026 RMK A01 T10271032  RH  096%=      5-min Rain = 0
KEA1 141312Z 16012G17KT M03/M03 A3026 RMK A01 T10271032  RH  096%=      5-min Rain = 0
KEA1 141313Z 16015KT M03/M03 A3026 RMK A01 T10261031  RH  096%=      5-min Rain = 0
KEA1 141314Z 17015KT M03/M03 A3026 RMK A01 T10261031  RH  096%=      5-min Rain = 0
KEA1 141315Z 17013KT M03/M03 A3026 RMK A01 T10261031  RH  096%=      5-min Rain = 0
KEA1 141316Z 16015KT M03/M03 A3026 RMK A01 T10261031  RH  096%=      5-min Rain = 0
KEA1 141317Z 16014KT M03/M03 A3026 RMK A01 T10261031  RH  096%=      5-min Rain = 0
KEA1 141318Z 16012KT M03/M03 A3026 RMK A01 T10261031  RH  096%=      5-min Rain = 0
KEA1 141319Z 17014KT M03/M03 A3026 RMK A01 T10261031  RH  096%=      5-min Rain = 0
KEA1 141320Z 17015KT M03/M03 A3026 RMK A01 T10251031  RH  096%=      5-min Rain = 0
KEA1 141321Z 17015KT M03/M03 A3026 RMK A01 T10261031  RH  096%=      5-min Rain = 0
KEA1 141322Z 17015KT M03/M03 A3026 RMK A01 T10251030  RH  096%=      5-min Rain = 0
KEA1 141323Z 17014KT M03/M03 A3026 RMK A01 T10261031  RH  096%=      5-min Rain = 0
KEA1 141324Z 17014KT M03/M03 A3026 RMK A01 T10261031  RH  096%=      5-min Rain = 0
KEA1 141325Z 17013KT M03/M03 A3026 RMK A01 T10261031  RH  096%=      5-min Rain = 0
KEA1 141326Z 17014KT M03/M03 A3026 RMK A01 T10261031  RH  096%=      5-min Rain = 0
KEA1 141327Z 17015KT M03/M03 A3026 RMK A01 T10261031  RH  096%=      5-min Rain = 0
KEA1 141328Z 17014KT M03/M03 A3026 RMK A01 T10261031  RH  096%=      5-min Rain = 0
KEA1 141329Z 17014KT M03/M03 A3026 RMK A01 T10261031  RH  096%=      5-min Rain = 0
KEA1 141330Z 17014KT M03/M03 A3026 RMK A01 T10261031  RH  096%=      5-min Rain = 0
KEA1 141331Z 16011KT M03/M03 A3027 RMK A01 T10261031  RH  096%=      5-min Rain = 0
KEA1 141332Z 16011KT M03/M03 A3027 RMK A01 T10261031  RH  096%=      5-min Rain = 0
KEA1 141333Z 16014KT M03/M03 A3027 RMK A01 T10261031  RH  096%=      5-min Rain = 0
KEA1 141334Z 17013KT M03/M03 A3026 RMK A01 T10251030  RH  096%=      5-min Rain = 0
KEA1 141335Z 17012KT M03/M03 A3027 RMK A01 T10261031  RH  096%=      5-min Rain = 0
KEA1 141336Z 16013KT M03/M03 A3027 RMK A01 T10261031  RH  096%=      5-min Rain = 0
KEA1 141337Z 17012KT M03/M03 A3027 RMK A01 T10261031  RH  096%=      5-min Rain = 0
KEA1 141338Z 16010KT M03/M03 A3027 RMK A01 T10251030  RH  096%=      5-min Rain = 0
KEA1 141339Z 16012KT M03/M03 A3027 RMK A01 T10251031  RH  096%=      5-min Rain = 0
KEA1 141340Z 16013KT M03/M03 A3027 RMK A01 T10251030  RH  096%=      5-min Rain = 0
KEA1 141341Z 17014KT M03/M03 A3027 RMK A01 T10261031  RH  096%=      5-min Rain = 0
KEA1 141342Z 16012KT M03/M03 A3027 RMK A01 T10251031  RH  096%=      5-min Rain = 0
KEA1 141343Z 16013KT M03/M03 A3027 RMK A01 T10251031  RH  096%=      5-min Rain = 0
KEA1 141344Z 17014KT M03/M03 A3027 RMK A01 T10261031  RH  096%=      5-min Rain = 0
KEA1 141345Z 16014KT M03/M03 A3027 RMK A01 T10251031  RH  096%=      5-min Rain = 0
KEA1 141346Z 17014KT M03/M03 A3027 RMK A01 T10251031  RH  096%=      5-min Rain = 0
KEA1 141347Z 16010KT M03/M03 A3027 RMK A01 T10261031  RH  096%=      5-min Rain = 0
KEA1 141348Z 17012KT M03/M03 A3027 RMK A01 T10251031  RH  096%=      5-min Rain = 0
KEA1 141349Z 17011KT M03/M03 A3027 RMK A01 T10261031  RH  096%=      5-min Rain = 0
KEA1 141350Z 17011KT M03/M03 A3027 RMK A01 T10261031  RH  096%=      5-min Rain = 0
KEA1 141351Z 17010KT M03/M03 A3027 RMK A01 T10261031  RH  096%=      5-min Rain = 0
KEA1 141352Z 17012KT M03/M03 A3027 RMK A01 T10261031  RH  096%=      5-min Rain = 0
KEA1 141353Z 18012KT M03/M03 A3027 RMK A01 T10261031  RH  096%=      5-min Rain = 0
KEA1 141354Z 18013KT M03/M03 A3027 RMK A01 T10251030  RH  096%=      5-min Rain = 0
KEA1 141355Z 16012KT M03/M03 A3027 RMK A01 T10261031  RH  096%=      5-min Rain = 0
KEA1 141356Z 17012KT M03/M03 A3027 RMK A01 T10261031  RH  096%=      5-min Rain = 0
KEA1 141357Z 17010KT M03/M03 A3027 RMK A01 T10251031  RH  096%=      5-min Rain = 0
KEA1 141358Z 17010KT M03/M03 A3027 RMK A01 T10251030  RH  096%=      5-min Rain = 0
KEA1 141359Z 17012KT M03/M03 A3027 RMK A01 T10251030  RH  096%=      5-min Rain = 0
KEA1 141400Z 16010KT M03/M03 A3027 RMK A01 T10251030  RH  096%=      5-min Rain = 0
KEA1 141401Z 17011KT M03/M03 A3027 RMK A01 T10251030  RH  096%=      5-min Rain = 0
KEA1 141402Z 17012KT M03/M03 A3027 RMK A01 T10251030  RH  096%=      5-min Rain = 0
KEA1 141403Z 17009KT M03/M03 A3027 RMK A01 T10251030  RH  096%=      5-min Rain = 0
KEA1 141404Z 17008KT M03/M03 A3027 RMK A01 T10251030  RH  096%=      5-min Rain = 0
KEA1 141405Z 18011KT M03/M03 A3027 RMK A01 T10251030  RH  096%=      5-min Rain = 0
KEA1 141406Z 18010KT M03/M03 A3027 RMK A01 T10251030  RH  096%=      5-min Rain = 0
KEA1 141407Z 17010KT M03/M03 A3027 RMK A01 T10251030  RH  096%=      5-min Rain = 0
KEA1 141408Z 17012KT M03/M03 A3027 RMK A01 T10251030  RH  096%=      5-min Rain = 0
KEA1 141409Z 17013KT M03/M03 A3027 RMK A01 T10251030  RH  096%=      5-min Rain = 0
KEA1 141410Z 17011KT M03/M03 A3027 RMK A01 T10251030  RH  096%=      5-min Rain = 0
KEA1 141411Z 17011KT M03/M03 A3027 RMK A01 T10251030  RH  096%=      5-min Rain = 0
KEA1 141412Z 17013KT M03/M03 A3027 RMK A01 T10251030  RH  096%=      5-min Rain = 0
KEA1 141413Z 17012KT M03/M03 A3027 RMK A01 T10251030  RH  096%=      5-min Rain = 0
KEA1 141414Z 17011KT M03/M03 A3027 RMK A01 T10251030  RH  096%=      5-min Rain = 0
KEA1 141415Z 17013KT M03/M03 A3027 RMK A01 T10251030  RH  096%=      5-min Rain = 0
KEA1 141416Z 18014KT M03/M03 A3027 RMK A01 T10251030  RH  096%=      5-min Rain = 0
KEA1 141417Z 17012KT M03/M03 A3027 RMK A01 T10251030  RH  096%=      5-min Rain = 0
KEA1 141418Z 18012KT M03/M03 A3027 RMK A01 T10251030  RH  096%=      5-min Rain = 0
KEA1 141419Z 17014KT M03/M03 A3027 RMK A01 T10251030  RH  096%=      5-min Rain = 0
KEA1 141420Z 18011KT M03/M03 A3027 RMK A01 T10251030  RH  096%=      5-min Rain = 0
KEA1 141421Z 18012KT M03/M03 A3027 RMK A01 T10251030  RH  096%=      5-min Rain = 0
KEA1 141422Z 18014KT M02/M03 A3027 RMK A01 T10241029  RH  096%=      5-min Rain = 0
KEA1 141423Z 18011KT M02/M03 A3027 RMK A01 T10241029  RH  096%=      5-min Rain = 0
KEA1 141424Z 18010KT M02/M03 A3027 RMK A01 T10241029  RH  096%=      5-min Rain = 0
KEA1 141425Z 18013KT M02/M03 A3027 RMK A01 T10241029  RH  096%=      5-min Rain = 0
KEA1 141426Z 17014KT M02/M03 A3027 RMK A01 T10241029  RH  096%=      5-min Rain = 0
KEA1 141427Z 17013KT M02/M03 A3027 RMK A01 T10241029  RH  096%=      5-min Rain = 0
KEA1 141428Z 17013KT M02/M03 A3027 RMK A01 T10241029  RH  096%=      5-min Rain = 0
KEA1 141429Z 17014KT M02/M03 A3027 RMK A01 T10241029  RH  096%=      5-min Rain = 0
KEA1 141430Z 17012KT M02/M03 A3027 RMK A01 T10241029  RH  096%=      5-min Rain = 0
KEA1 141431Z 17009KT M02/M03 A3027 RMK A01 T10241029  RH  096%=      5-min Rain = 0
KEA1 141432Z 17009KT M02/M03 A3027 RMK A01 T10241028  RH  097%=      5-min Rain = 0
KEA1 141433Z 18011KT M02/M03 A3027 RMK A01 T10231028  RH  097%=      5-min Rain = 0
KEA1 141434Z 18011KT M02/M03 A3027 RMK A01 T10231028  RH  097%=      5-min Rain = 0
KEA1 141435Z 17010KT M02/M03 A3027 RMK A01 T10231028  RH  097%=      5-min Rain = 0
KEA1 141436Z 17010KT M02/M03 A3027 RMK A01 T10231028  RH  096%=      5-min Rain = 0
KEA1 141437Z 18009KT M02/M03 A3027 RMK A01 T10231028  RH  097%=      5-min Rain = 0
KEA1 141438Z 17011KT M02/M03 A3027 RMK A01 T10231027  RH  097%=      5-min Rain = 0
KEA1 141439Z 18011KT M02/M03 A3027 RMK A01 T10231028  RH  097%=      5-min Rain = 0
KEA1 141440Z 18012KT M02/M03 A3027 RMK A01 T10231027  RH  097%=      5-min Rain = 0
KEA1 141441Z 18011KT M02/M03 A3027 RMK A01 T10231028  RH  096%=      5-min Rain = 0
KEA1 141442Z 18010KT M02/M03 A3027 RMK A01 T10231028  RH  096%=      5-min Rain = 0
KEA1 141443Z 18010KT M02/M03 A3027 RMK A01 T10221027  RH  097%=      5-min Rain = 0
KEA1 141444Z 18009KT M02/M03 A3027 RMK A01 T10221027  RH  097%=      5-min Rain = 0
KEA1 141445Z 18010KT M02/M03 A3027 RMK A01 T10221027  RH  097%=      5-min Rain = 0
KEA1 141446Z 17012KT M02/M03 A3027 RMK A01 T10221027  RH  097%=      5-min Rain = 0
KEA1 141447Z 17011KT M02/M03 A3027 RMK A01 T10221026  RH  097%=      5-min Rain = 0
KEA1 141448Z 18013KT M02/M03 A3027 RMK A01 T10221027  RH  097%=      5-min Rain = 0
KEA1 141449Z 17013KT M02/M03 A3027 RMK A01 T10221027  RH  097%=      5-min Rain = 0
KEA1 141450Z 18015KT M02/M03 A3027 RMK A01 T10221027  RH  097%=      5-min Rain = 0
KEA1 141451Z 17014KT M02/M03 A3027 RMK A01 T10221027  RH  097%=      5-min Rain = 0
KEA1 141452Z 18012KT M02/M03 A3027 RMK A01 T10221026  RH  097%=      5-min Rain = 0
KEA1 141453Z 18013KT M02/M03 A3027 RMK A01 T10221027  RH  097%=      5-min Rain = 0
KEA1 141454Z 18014KT M02/M03 A3027 RMK A01 T10221027  RH  097%=      5-min Rain = 0
KEA1 141455Z 18013KT M02/M03 A3027 RMK A01 T10221027  RH  097%=      5-min Rain = 0
KEA1 141456Z 18013KT M02/M03 A3027 RMK A01 T10221027  RH  097%=      5-min Rain = 0
KEA1 141457Z 18011KT M02/M03 A3027 RMK A01 T10221027  RH  097%=      5-min Rain = 0
KEA1 141458Z 18009KT M02/M03 A3027 RMK A01 T10211026  RH  097%=      5-min Rain = 0
KEA1 141459Z 18009KT M02/M03 A3027 RMK A01 T10211025  RH  097%=      5-min Rain = 0
KEA1 141500Z 18009KT M02/M03 A3027 RMK A01 T10211025  RH  097%=      5-min Rain = 0
KEA1 141501Z 18012KT M02/M03 A3027 RMK A01 T10211025  RH  097%=      5-min Rain = 0
KEA1 141502Z 18012KT M02/M03 A3027 RMK A01 T10211025  RH  097%=      5-min Rain = 0
KEA1 141503Z 18011KT M02/M03 A3027 RMK A01 T10201025  RH  097%=      5-min Rain = 0
KEA1 141504Z 18014KT M02/M03 A3027 RMK A01 T10211025  RH  097%=      5-min Rain = 0
KEA1 141505Z 18013KT M02/M03 A3027 RMK A01 T10211025  RH  097%=      5-min Rain = 0
KEA1 141506Z 18012KT M02/M03 A3027 RMK A01 T10211025  RH  097%=      5-min Rain = 0
KEA1 141507Z 19012KT M02/M03 A3027 RMK A01 T10201025  RH  097%=      5-min Rain = 0
KEA1 141508Z 18012KT M02/M03 A3027 RMK A01 T10201025  RH  097%=      5-min Rain = 0
KEA1 141509Z 18011KT M02/M03 A3027 RMK A01 T10201025  RH  097%=      5-min Rain = 0
KEA1 141510Z 18012KT M02/M02 A3027 RMK A01 T10201024  RH  097%=      5-min Rain = 0
KEA1 141511Z 19010KT M02/M02 A3027 RMK A01 T10201024  RH  097%=      5-min Rain = 0
KEA1 141512Z 19011KT M02/M02 A3027 RMK A01 T10191024  RH  097%=      5-min Rain = 0
KEA1 141513Z 18011KT M02/M02 A3027 RMK A01 T10191024  RH  097%=      5-min Rain = 0
KEA1 141514Z 19011KT M02/M02 A3027 RMK A01 T10191023  RH  097%=      5-min Rain = 0
KEA1 141515Z 18011KT M02/M02 A3027 RMK A01 T10191024  RH  097%=      5-min Rain = 0
KEA1 141516Z 18010KT M02/M02 A3027 RMK A01 T10191024  RH  097%=      5-min Rain = 0
KEA1 141517Z 18010KT M02/M02 A3027 RMK A01 T10191023  RH  097%=      5-min Rain = 0
KEA1 141518Z 19011KT M02/M02 A3028 RMK A01 T10181023  RH  097%=      5-min Rain = 0
KEA1 141519Z 18011KT M02/M02 A3027 RMK A01 T10191023  RH  097%=      5-min Rain = 0
KEA1 141520Z 18012KT M02/M02 A3027 RMK A01 T10191023  RH  097%=      5-min Rain = 0
KEA1 141521Z 17013KT M02/M02 A3027 RMK A01 T10191023  RH  097%=      5-min Rain = 0
KEA1 141522Z 18013KT M02/M02 A3027 RMK A01 T10191024  RH  097%=      5-min Rain = 0
KEA1 141523Z 19014KT M02/M02 A3027 RMK A01 T10191023  RH  097%=      5-min Rain = 0
KEA1 141524Z 18013KT M02/M02 A3027 RMK A01 T10191023  RH  097%=      5-min Rain = 0
KEA1 141525Z 18013KT M02/M02 A3027 RMK A01 T10181023  RH  097%=      5-min Rain = 0
KEA1 141526Z 18013KT M02/M02 A3027 RMK A01 T10181022  RH  097%=      5-min Rain = 0
KEA1 141527Z 19015KT M02/M02 A3027 RMK A01 T10181022  RH  097%=      5-min Rain = 0
KEA1 141528Z 19012KT M02/M02 A3027 RMK A01 T10181022  RH  097%=      5-min Rain = 0
KEA1 141529Z 19011KT M02/M02 A3027 RMK A01 T10171022  RH  097%=      5-min Rain = 0
KEA1 141530Z 19012KT M02/M02 A3027 RMK A01 T10171021  RH  097%=      5-min Rain = 0
KEA1 141531Z 19012KT M02/M02 A3027 RMK A01 T10171021  RH  097%=      5-min Rain = 0
KEA1 141532Z 18012KT M02/M02 A3027 RMK A01 T10171021  RH  097%=      5-min Rain = 0
KEA1 141533Z 18013KT M02/M02 A3027 RMK A01 T10171021  RH  097%=      5-min Rain = 0
KEA1 141534Z 18010KT M02/M02 A3027 RMK A01 T10171021  RH  097%=      5-min Rain = 0
KEA1 141535Z 19009KT M02/M02 A3027 RMK A01 T10161021  RH  097%=      5-min Rain = 0
KEA1 141536Z 18012KT M02/M02 A3027 RMK A01 T10161020  RH  097%=      5-min Rain = 0
KEA1 141537Z 18014KT M02/M02 A3027 RMK A01 T10161020  RH  097%=      5-min Rain = 0
KEA1 141538Z 18012KT M02/M02 A3027 RMK A01 T10171021  RH  097%=      5-min Rain = 0
KEA1 141539Z 18013KT M02/M02 A3027 RMK A01 T10161021  RH  097%=      5-min Rain = 0
KEA1 141540Z 18015KT M02/M02 A3027 RMK A01 T10161020  RH  097%=      5-min Rain = 0
KEA1 141541Z 18014KT M02/M02 A3027 RMK A01 T10161020  RH  097%=      5-min Rain = 0
KEA1 141542Z 18013KT M02/M02 A3027 RMK A01 T10161020  RH  097%=      5-min Rain = 0
KEA1 141543Z 18012KT M02/M02 A3027 RMK A01 T10161020  RH  097%=      5-min Rain = 0
KEA1 141544Z 18011KT M02/M02 A3027 RMK A01 T10161020  RH  097%=      5-min Rain = 0
KEA1 141545Z 18011KT M02/M02 A3027 RMK A01 T10161020  RH  097%=      5-min Rain = 0
KEA1 141546Z 18008KT M02/M02 A3028 RMK A01 T10151019  RH  097%=      5-min Rain = 0
KEA1 141547Z 18010KT M02/M02 A3028 RMK A01 T10151019  RH  097%=      5-min Rain = 0
KEA1 141548Z 18013KT M01/M02 A3027 RMK A01 T10141018  RH  097%=      5-min Rain = 0
KEA1 141549Z 18011KT M01/M02 A3027 RMK A01 T10141018  RH  097%=      5-min Rain = 0
KEA1 141550Z 18011KT M02/M02 A3027 RMK A01 T10151019  RH  097%=      5-min Rain = 0
KEA1 141551Z 18010KT M01/M02 A3027 RMK A01 T10141018  RH  097%=      5-min Rain = 0
KEA1 141552Z 19012KT M01/M02 A3027 RMK A01 T10141018  RH  097%=      5-min Rain = 0
KEA1 141553Z 19014KT M01/M02 A3027 RMK A01 T10141018  RH  097%=      5-min Rain = 0
KEA1 141554Z 18014KT M01/M02 A3027 RMK A01 T10141018  RH  097%=      5-min Rain = 0
KEA1 141555Z 19015KT M01/M02 A3027 RMK A01 T10141018  RH  097%=      5-min Rain = 0
KEA1 141556Z 19013KT M02/M02 A3027 RMK A01 T10151019  RH  097%=      5-min Rain = 0
KEA1 141557Z 18013KT M02/M02 A3027 RMK A01 T10151019  RH  097%=      5-min Rain = 0
KEA1 141558Z 18013KT M01/M02 A3027 RMK A01 T10141018  RH  097%=      5-min Rain = 0
KEA1 141559Z 18015KT M01/M02 A3027 RMK A01 T10141018  RH  097%=      5-min Rain = 0
KEA1 141600Z 19015KT M01/M02 A3027 RMK A01 T10141018  RH  097%=      5-min Rain = 0
KEA1 141601Z 18013KT M01/M02 A3027 RMK A01 T10141018  RH  097%=      5-min Rain = 0
KEA1 141602Z 18012KT M01/M02 A3027 RMK A01 T10141018  RH  097%=      5-min Rain = 0
KEA1 141603Z 19012KT M01/M02 A3027 RMK A01 T10131017  RH  097%=      5-min Rain = 0
KEA1 141604Z 20014KT M01/M02 A3027 RMK A01 T10131017  RH  097%=      5-min Rain = 0
KEA1 141605Z 19014KT M01/M02 A3027 RMK A01 T10131017  RH  097%=      5-min Rain = 0
KEA1 141606Z 19012KT M01/M02 A3027 RMK A01 T10141018  RH  097%=      5-min Rain = 0
KEA1 141607Z 19014KT M01/M02 A3027 RMK A01 T10131017  RH  097%=      5-min Rain = 0
KEA1 141608Z 19014KT M01/M02 A3027 RMK A01 T10131017  RH  097%=      5-min Rain = 0
KEA1 141609Z 18014KT M01/M02 A3027 RMK A01 T10131017  RH  097%=      5-min Rain = 0
KEA1 141610Z 19013KT M01/M02 A3027 RMK A01 T10121016  RH  097%=      5-min Rain = 0
KEA1 141611Z 18012KT M01/M02 A3027 RMK A01 T10121016  RH  097%=      5-min Rain = 0
KEA1 141612Z 20012KT M01/M02 A3027 RMK A01 T10121016  RH  097%=      5-min Rain = 0
KEA1 141613Z 19013KT M01/M02 A3027 RMK A01 T10121016  RH  097%=      5-min Rain = 0
KEA1 141614Z 19012KT M01/M02 A3027 RMK A01 T10121016  RH  097%=      5-min Rain = 0
KEA1 141615Z 19012KT M01/M02 A3027 RMK A01 T10121016  RH  097%=      5-min Rain = 0
KEA1 141616Z 19012KT M01/M02 A3027 RMK A01 T10111015  RH  097%=      5-min Rain = 0
KEA1 141617Z 19012KT M01/M01 A3027 RMK A01 T10101014  RH  097%=      5-min Rain = 0
KEA1 141618Z 19013KT M01/M02 A3027 RMK A01 T10111015  RH  097%=      5-min Rain = 0
KEA1 141619Z 20012KT M01/M02 A3027 RMK A01 T10111015  RH  097%=      5-min Rain = 0
KEA1 141620Z 19012KT M01/M02 A3027 RMK A01 T10111015  RH  097%=      5-min Rain = 0
KEA1 141621Z 19011KT M01/M02 A3027 RMK A01 T10121016  RH  097%=      5-min Rain = 0
KEA1 141622Z 20013KT M01/M02 A3027 RMK A01 T10111015  RH  097%=      5-min Rain = 0
KEA1 141623Z 19012KT M01/M02 A3027 RMK A01 T10111015  RH  097%=      5-min Rain = 0
KEA1 141624Z 19011KT M01/M01 A3027 RMK A01 T10101014  RH  097%=      5-min Rain = 0
KEA1 141625Z 18012KT M01/M01 A3027 RMK A01 T10111014  RH  097%=      5-min Rain = 0
KEA1 141626Z 18011KT M01/M01 A3027 RMK A01 T10111014  RH  097%=      5-min Rain = 0
KEA1 141627Z 17013KT M01/M01 A3027 RMK A01 T10101014  RH  097%=      5-min Rain = 0
KEA1 141628Z 18013KT M01/M01 A3027 RMK A01 T10101014  RH  097%=      5-min Rain = 0
KEA1 141629Z 18014KT M01/M01 A3026 RMK A01 T10101014  RH  097%=      5-min Rain = 0
KEA1 141630Z 18011KT M01/M01 A3027 RMK A01 T10111014  RH  097%=      5-min Rain = 0
KEA1 141631Z 18013KT M01/M01 A3027 RMK A01 T10091013  RH  097%=      5-min Rain = 0
KEA1 141632Z 19011KT M01/M01 A3027 RMK A01 T10091012  RH  097%=      5-min Rain = 0
KEA1 141633Z 19010KT M01/M01 A3027 RMK A01 T10091012  RH  097%=      5-min Rain = 0
KEA1 141634Z 19009KT M01/M01 A3027 RMK A01 T10081012  RH  097%=      5-min Rain = 0
KEA1 141635Z 19011KT M01/M01 A3027 RMK A01 T10091012  RH  097%=      5-min Rain = 0
KEA1 141636Z 19012KT M01/M01 A3027 RMK A01 T10091013  RH  097%=      5-min Rain = 0
KEA1 141637Z 18015KT M01/M01 A3026 RMK A01 T10091013  RH  097%=      5-min Rain = 0
KEA1 141638Z 19012KT M01/M01 A3027 RMK A01 T10091013  RH  097%=      5-min Rain = 0
KEA1 141639Z 19013KT M01/M01 A3027 RMK A01 T10081012  RH  097%=      5-min Rain = 0
KEA1 141640Z 19013KT M01/M01 A3027 RMK A01 T10081012  RH  097%=      5-min Rain = 0
KEA1 141641Z 18014KT M01/M01 A3026 RMK A01 T10081012  RH  097%=      5-min Rain = 0
KEA1 141642Z 19016KT M01/M01 A3026 RMK A01 T10091013  RH  097%=      5-min Rain = 0
KEA1 141643Z 19014KT M01/M01 A3026 RMK A01 T10091013  RH  097%=      5-min Rain = 0
KEA1 141644Z 19014KT M01/M01 A3026 RMK A01 T10091013  RH  097%=      5-min Rain = 0
KEA1 141645Z 19012KT M01/M01 A3026 RMK A01 T10091013  RH  097%=      5-min Rain = 0
KEA1 141646Z 19010KT M01/M01 A3027 RMK A01 T10081012  RH  097%=      5-min Rain = 0
KEA1 141647Z 20014KT M01/M01 A3026 RMK A01 T10081012  RH  097%=      5-min Rain = 0
KEA1 141648Z 20013KT M01/M01 A3026 RMK A01 T10081012  RH  097%=      5-min Rain = 0
KEA1 141649Z 20012KT M01/M01 A3027 RMK A01 T10071012  RH  097%=      5-min Rain = 0
KEA1 141650Z 19011KT M01/M01 A3027 RMK A01 T10061011  RH  097%=      5-min Rain = 0
KEA1 141651Z 18012KT M01/M01 A3027 RMK A01 T10061010  RH  097%=      5-min Rain = 0
KEA1 141652Z 19014KT M01/M01 A3026 RMK A01 T10061010  RH  097%=      5-min Rain = 0
KEA1 141653Z 19014KT M01/M01 A3026 RMK A01 T10071011  RH  097%=      5-min Rain = 0
KEA1 141654Z 18013KT M01/M01 A3026 RMK A01 T10071012  RH  097%=      5-min Rain = 0
KEA1 141655Z 19012KT M01/M01 A3026 RMK A01 T10071011  RH  097%=      5-min Rain = 0
KEA1 141656Z 19012KT M01/M01 A3027 RMK A01 T10071012  RH  097%=      5-min Rain = 0
KEA1 141657Z 18014KT M01/M01 A3027 RMK A01 T10061011  RH  097%=      5-min Rain = 0
KEA1 141658Z 18016KT M01/M01 A3026 RMK A01 T10061011  RH  097%=      5-min Rain = 0
KEA1 141659Z 19013KT M01/M01 A3027 RMK A01 T10061011  RH  096%=      5-min Rain = 0
KEA1 141700Z 19012KT M01/M01 A3027 RMK A01 T10061011  RH  096%=      5-min Rain = 0
KEA1 141701Z 19012KT M01/M01 A3027 RMK A01 T10061011  RH  096%=      5-min Rain = 0
KEA1 141702Z 19012KT M01/M01 A3027 RMK A01 T10051011  RH  096%=      5-min Rain = 0
KEA1 141703Z 19012KT M01/M01 A3027 RMK A01 T10051011  RH  096%=      5-min Rain = 0
KEA1 141704Z 19009KT M01/M01 A3027 RMK A01 T10051011  RH  096%=      5-min Rain = 0
KEA1 141705Z 19010KT M00/M01 A3027 RMK A01 T10041009  RH  096%=      5-min Rain = 0
KEA1 141706Z 19012KT M00/M01 A3027 RMK A01 T10031009  RH  096%=      5-min Rain = 0
KEA1 141707Z 19011KT M00/M01 A3027 RMK A01 T10041010  RH  096%=      5-min Rain = 0
KEA1 141708Z 19009KT M00/M01 A3027 RMK A01 T10041010  RH  096%=      5-min Rain = 0
KEA1 141709Z 19010KT M00/M01 A3026 RMK A01 T10031010  RH  096%=      5-min Rain = 0
KEA1 141710Z 19012KT M00/M01 A3026 RMK A01 T10031009  RH  096%=      5-min Rain = 0
KEA1 141711Z 20011KT M00/M01 A3026 RMK A01 T10021009  RH  095%=      5-min Rain = 0
KEA1 141712Z 19014KT M00/M01 A3026 RMK A01 T10031010  RH  095%=      5-min Rain = 0
KEA1 141713Z 18012KT M00/M01 A3026 RMK A01 T10031010  RH  095%=      5-min Rain = 0
KEA1 141714Z 19012KT M00/M01 A3026 RMK A01 T10021010  RH  095%=      5-min Rain = 0
KEA1 141715Z 19013KT M00/M01 A3026 RMK A01 T10021010  RH  094%=      5-min Rain = 0
KEA1 141716Z 19012KT M00/M01 A3026 RMK A01 T10021011  RH  094%=      5-min Rain = 0
KEA1 141717Z 20013KT M00/M01 A3026 RMK A01 T10021011  RH  094%=      5-min Rain = 0
KEA1 141718Z 20012KT M00/M01 A3026 RMK A01 T10021011  RH  094%=      5-min Rain = 0
KEA1 141719Z 19013KT M00/M01 A3026 RMK A01 T10021011  RH  094%=      5-min Rain = 0
KEA1 141720Z 19012KT M00/M01 A3026 RMK A01 T10021011  RH  094%=      5-min Rain = 0
KEA1 141721Z 20014KT M00/M01 A3026 RMK A01 T10021011  RH  094%=      5-min Rain = 0
KEA1 141722Z 19011KT M00/M01 A3026 RMK A01 T10021012  RH  094%=      5-min Rain = 0
KEA1 141723Z 20010KT M00/M01 A3026 RMK A01 T10011010  RH  094%=      5-min Rain = 0
KEA1 141724Z 20011KT 00/01 A3026 RMK A01 T000000-8  RH  094%=      5-min Rain = 0
KEA1 141725Z 20012KT 00/01 A3026 RMK A01 T000000-9  RH  094%=      5-min Rain = 0
KEA1 141726Z 19014KT 00/01 A3025 RMK A01 T00000-10  RH  093%=      5-min Rain = 0
KEA1 141727Z 18015KT 00/01 A3025 RMK A01 T00-00-10  RH  093%=      5-min Rain = 0
KEA1 141728Z 19014KT 00/01 A3025 RMK A01 T00-00-11  RH  093%=      5-min Rain = 0
KEA1 141729Z 19011KT M00/M01 A3025 RMK A01 T10011011  RH  093%=      5-min Rain = 0
KEA1 141730Z 19013KT 00/01 A3025 RMK A01 T00000-10  RH  093%=      5-min Rain = 0
KEA1 141731Z 20014KT 00/01 A3025 RMK A01 T00000-10  RH  093%=      5-min Rain = 0
KEA1 141732Z 20013KT 00/01 A3025 RMK A01 T00000-11  RH  092%=      5-min Rain = 0
KEA1 141733Z 20011KT 00/M01 A3025 RMK A01 T00011011  RH  092%=      5-min Rain = 0
KEA1 141734Z 19010KT 00/M01 A3025 RMK A01 T00011010  RH  092%=      5-min Rain = 0
KEA1 141735Z 19013KT 00/M01 A3025 RMK A01 T00031008  RH  093%=      5-min Rain = 0
KEA1 141736Z 19012KT 00/M01 A3025 RMK A01 T00031009  RH  092%=      5-min Rain = 0
KEA1 141737Z 19013KT 00/M01 A3025 RMK A01 T00021010  RH  092%=      5-min Rain = 0
KEA1 141738Z 20011KT 00/M01 A3025 RMK A01 T00021010  RH  092%=      5-min Rain = 0
KEA1 141739Z 20013KT 00/M01 A3025 RMK A01 T00031009  RH  092%=      5-min Rain = 0
KEA1 141740Z 20014KT 00/M01 A3025 RMK A01 T00031010  RH  091%=      5-min Rain = 0
KEA1 141741Z 20010KT 00/M01 A3025 RMK A01 T00011011  RH  091%=      5-min Rain = 0
KEA1 141742Z 20014KT 00/M01 A3025 RMK A01 T00011010  RH  092%=      5-min Rain = 0
KEA1 141743Z 20014KT 00/M01 A3025 RMK A01 T00021010  RH  092%=      5-min Rain = 0
KEA1 141744Z 20015KT 00/M01 A3025 RMK A01 T00021010  RH  092%=      5-min Rain = 0
KEA1 141745Z 20014KT 00/M01 A3025 RMK A01 T00021010  RH  092%=      5-min Rain = 0
KEA1 141746Z 19014KT 00/M01 A3025 RMK A01 T00021010  RH  092%=      5-min Rain = 0
KEA1 141747Z 19013KT 00/M01 A3025 RMK A01 T00021010  RH  092%=      5-min Rain = 0
KEA1 141748Z 19012KT 00/M01 A3025 RMK A01 T00021010  RH  092%=      5-min Rain = 0
KEA1 141749Z 20013KT 00/M01 A3025 RMK A01 T00021010  RH  092%=      5-min Rain = 0
KEA1 141750Z 19012KT 00/M01 A3025 RMK A01 T00021010  RH  091%=      5-min Rain = 0
KEA1 141751Z 19013KT 00/M01 A3025 RMK A01 T00021010  RH  091%=      5-min Rain = 0
KEA1 141752Z 19011KT 00/M01 A3025 RMK A01 T00021011  RH  091%=      5-min Rain = 0
KEA1 141753Z 18012KT 00/M01 A3025 RMK A01 T00011011  RH  092%=      5-min Rain = 0
KEA1 141754Z 19013KT 00/M01 A3025 RMK A01 T00021010  RH  092%=      5-min Rain = 0
KEA1 141755Z 19012KT 00/M01 A3025 RMK A01 T00021010  RH  092%=      5-min Rain = 0
KEA1 141756Z 19014KT 00/M01 A3025 RMK A01 T00031009  RH  092%=      5-min Rain = 0
KEA1 141757Z 18015KT 00/M01 A3025 RMK A01 T00021010  RH  091%=      5-min Rain = 0
KEA1 141758Z 20014KT 00/M01 A3025 RMK A01 T00021010  RH  091%=      5-min Rain = 0
KEA1 141759Z 20014KT 00/M01 A3025 RMK A01 T00021011  RH  091%=      5-min Rain = 0
KEA1 141800Z 19015KT 00/M01 A3025 RMK A01 T00021011  RH  091%=      5-min Rain = 0
KEA1 141801Z 19015KT 00/M01 A3025 RMK A01 T00031010  RH  091%=      5-min Rain = 0
KEA1 141802Z 19014KT 00/M01 A3025 RMK A01 T00031010  RH  091%=      5-min Rain = 0
KEA1 141803Z 19015KT 00/M01 A3025 RMK A01 T00031010  RH  091%=      5-min Rain = 0
KEA1 141804Z 19016KT 00/M01 A3024 RMK A01 T00041010  RH  091%=      5-min Rain = 0
KEA1 141805Z 19015KT 00/M01 A3024 RMK A01 T00041010  RH  091%=      5-min Rain = 0
KEA1 141806Z 19015KT 00/M01 A3025 RMK A01 T00041009  RH  090%=      5-min Rain = 0
KEA1 141807Z 20015KT 00/M01 A3024 RMK A01 T00041011  RH  090%=      5-min Rain = 0
KEA1 141808Z 19014KT 00/M01 A3024 RMK A01 T00031011  RH  091%=      5-min Rain = 0
KEA1 141809Z 18016KT 00/M01 A3024 RMK A01 T00031010  RH  091%=      5-min Rain = 0
KEA1 141810Z 19015KT 00/M01 A3024 RMK A01 T00041010  RH  090%=      5-min Rain = 0
KEA1 141811Z 20015KT 00/M01 A3024 RMK A01 T00041010  RH  090%=      5-min Rain = 0
KEA1 141812Z 19015KT 01/M01 A3024 RMK A01 T00051009  RH  090%=      5-min Rain = 0
KEA1 141813Z 20017KT 01/M01 A3024 RMK A01 T00051010  RH  090%=      5-min Rain = 0
KEA1 141814Z 20015KT 01/M01 A3024 RMK A01 T00051010  RH  090%=      5-min Rain = 0
KEA1 141815Z 20015KT 00/M01 A3024 RMK A01 T00041010  RH  090%=      5-min Rain = 0
KEA1 141816Z 20015KT 01/M01 A3024 RMK A01 T00051010  RH  090%=      5-min Rain = 0
KEA1 141817Z 20013KT 01/M01 A3024 RMK A01 T00051009  RH  090%=      5-min Rain = 0
KEA1 141818Z 20014KT 01/M01 A3024 RMK A01 T00061009  RH  090%=      5-min Rain = 0
KEA1 141819Z 19013KT 01/M01 A3024 RMK A01 T00061009  RH  090%=      5-min Rain = 0
KEA1 141820Z 19013KT 01/M01 A3024 RMK A01 T00051009  RH  090%=      5-min Rain = 0
KEA1 141821Z 20015KT 01/M01 A3024 RMK A01 T00051009  RH  090%=      5-min Rain = 0
KEA1 141822Z 20013KT 01/M01 A3024 RMK A01 T00051010  RH  090%=      5-min Rain = 0
KEA1 141823Z 20013KT 01/M01 A3024 RMK A01 T00051009  RH  090%=      5-min Rain = 0
KEA1 141824Z 19014KT 01/M01 A3024 RMK A01 T00061008  RH  090%=      5-min Rain = 0
KEA1 141825Z 20014KT 01/M01 A3024 RMK A01 T00071008  RH  090%=      5-min Rain = 0
KEA1 141826Z 19016KT 01/M01 A3024 RMK A01 T00071008  RH  089%=      5-min Rain = 0
KEA1 141827Z 19015KT 01/M01 A3024 RMK A01 T00071009  RH  089%=      5-min Rain = 0
KEA1 141828Z 19017KT 01/M01 A3023 RMK A01 T00071009  RH  089%=      5-min Rain = 0
KEA1 141829Z 19016KT 01/M01 A3024 RMK A01 T00071009  RH  089%=      5-min Rain = 0
KEA1 141830Z 20018KT 01/M01 A3023 RMK A01 T00071009  RH  089%=      5-min Rain = 0
KEA1 141831Z 19015KT 01/M01 A3024 RMK A01 T00061010  RH  089%=      5-min Rain = 0
KEA1 141832Z 19015KT 01/M01 A3024 RMK A01 T00061009  RH  089%=      5-min Rain = 0
KEA1 141833Z 19015KT 01/M01 A3024 RMK A01 T00061009  RH  090%=      5-min Rain = 0
KEA1 141834Z 19012KT 01/M01 A3024 RMK A01 T00061009  RH  090%=      5-min Rain = 0
KEA1 141835Z 20012KT 01/M01 A3024 RMK A01 T00071007  RH  090%=      5-min Rain = 0
KEA1 141836Z 19014KT 01/M01 A3023 RMK A01 T00091006  RH  090%=      5-min Rain = 0
KEA1 141837Z 19013KT 01/M01 A3023 RMK A01 T00091006  RH  090%=      5-min Rain = 0
KEA1 141838Z 19013KT 01/M01 A3023 RMK A01 T00081006  RH  090%=      5-min Rain = 0
KEA1 141839Z 19013KT 01/M01 A3023 RMK A01 T00081006  RH  090%=      5-min Rain = 0
KEA1 141840Z 19012KT 01/M01 A3023 RMK A01 T00091006  RH  090%=      5-min Rain = 0
KEA1 141841Z 19012KT 01/M01 A3023 RMK A01 T00081006  RH  090%=      5-min Rain = 0
KEA1 141842Z 19012KT 01/M01 A3023 RMK A01 T00101005  RH  090%=      5-min Rain = 0
KEA1 141843Z 18014KT 01/M01 A3023 RMK A01 T00101005  RH  090%=      5-min Rain = 0
KEA1 141844Z 19014KT 01/M01 A3023 RMK A01 T00101005  RH  089%=      5-min Rain = 0
KEA1 141845Z 18014KT 01/M01 A3023 RMK A01 T00091007  RH  089%=      5-min Rain = 0
KEA1 141846Z 18014KT 01/M01 A3022 RMK A01 T00091006  RH  090%=      5-min Rain = 0
KEA1 141847Z 18014KT 01/M01 A3023 RMK A01 T00091006  RH  090%=      5-min Rain = 0
KEA1 141848Z 20011KT 01/M01 A3023 RMK A01 T00091006  RH  090%=      5-min Rain = 0
KEA1 141849Z 18012KT 01/M01 A3022 RMK A01 T00091005  RH  090%=      5-min Rain = 0
KEA1 141850Z 19012KT 01/M01 A3022 RMK A01 T00101005  RH  090%=      5-min Rain = 0
KEA1 141851Z 19014KT 01/M00 A3022 RMK A01 T00101004  RH  090%=      5-min Rain = 0
KEA1 141852Z 19015KT 01/M01 A3022 RMK A01 T00101005  RH  089%=      5-min Rain = 0
KEA1 141853Z 20012KT 01/M01 A3022 RMK A01 T00091006  RH  089%=      5-min Rain = 0
KEA1 141854Z 19011KT 01/M01 A3022 RMK A01 T00101005  RH  090%=      5-min Rain = 0
KEA1 141855Z 20010KT 01/M00 A3022 RMK A01 T00111004  RH  090%=      5-min Rain = 0
KEA1 141856Z 19012KT 01/M00 A3022 RMK A01 T00121003  RH  090%=      5-min Rain = 0
KEA1 141857Z 20011KT 01/M00 A3022 RMK A01 T00121003  RH  089%=      5-min Rain = 0
KEA1 141858Z 20011KT 01/M00 A3022 RMK A01 T00131003  RH  089%=      5-min Rain = 0
KEA1 141859Z 20012KT 01/M00 A3022 RMK A01 T00131004  RH  088%=      5-min Rain = 0
KEA1 141900Z 20012KT 01/M00 A3022 RMK A01 T00131004  RH  088%=      5-min Rain = 0
KEA1 141901Z 19014KT 01/M00 A3022 RMK A01 T00131004  RH  088%=      5-min Rain = 0
KEA1 141902Z 19014KT 01/M01 A3021 RMK A01 T00131005  RH  088%=      5-min Rain = 0
KEA1 141903Z 19013KT 01/M01 A3021 RMK A01 T00121005  RH  088%=      5-min Rain = 0
KEA1 141904Z 19014KT 01/M01 A3021 RMK A01 T00121005  RH  089%=      5-min Rain = 0
KEA1 141905Z 19012KT 01/M01 A3021 RMK A01 T00121005  RH  089%=      5-min Rain = 0
KEA1 141906Z 18014KT 01/M00 A3021 RMK A01 T00131004  RH  089%=      5-min Rain = 0
KEA1 141907Z 19015KT 01/M00 A3021 RMK A01 T00141004  RH  088%=      5-min Rain = 0
KEA1 141908Z 19015KT 01/M01 A3021 RMK A01 T00131005  RH  088%=      5-min Rain = 0
KEA1 141909Z 19016KT 01/M01 A3021 RMK A01 T00131005  RH  088%=      5-min Rain = 0
KEA1 141910Z 19016KT 01/M01 A3021 RMK A01 T00131005  RH  088%=      5-min Rain = 0
KEA1 141911Z 20015KT 01/M01 A3021 RMK A01 T00131005  RH  088%=      5-min Rain = 0
KEA1 141912Z 21014KT 01/M00 A3021 RMK A01 T00141004  RH  088%=      5-min Rain = 0
KEA1 141913Z 20014KT 01/M00 A3021 RMK A01 T00141004  RH  088%=      5-min Rain = 0
KEA1 141914Z 20013KT 01/M01 A3021 RMK A01 T00131005  RH  088%=      5-min Rain = 0
KEA1 141915Z 19012KT 01/M00 A3021 RMK A01 T00131004  RH  088%=      5-min Rain = 0
KEA1 141916Z 20011KT 01/M00 A3021 RMK A01 T00141002  RH  089%=      5-min Rain = 0
KEA1 141917Z 19014KT 02/M00 A3021 RMK A01 T00151002  RH  088%=      5-min Rain = 0
KEA1 141918Z 20013KT 02/M00 A3021 RMK A01 T00161003  RH  087%=      5-min Rain = 0
KEA1 141919Z 20011KT 02/M00 A3021 RMK A01 T00151003  RH  088%=      5-min Rain = 0
KEA1 141920Z 19011KT 02/M00 A3021 RMK A01 T00151002  RH  088%=      5-min Rain = 0
KEA1 141921Z 19012KT 02/M00 A3021 RMK A01 T00151004  RH  087%=      5-min Rain = 0
KEA1 141922Z 19012KT 01/M00 A3021 RMK A01 T00141004  RH  088%=      5-min Rain = 0
KEA1 141923Z 20015KT 02/M00 A302 RMK A01 T00161002  RH  088%=      5-min Rain = 0
KEA1 141924Z 20015KT 02/M00 A302 RMK A01 T00161004  RH  087%=      5-min Rain = 0
KEA1 141925Z 20012KT 02/M00 A302 RMK A01 T00151004  RH  087%=      5-min Rain = 0
KEA1 141926Z 20013KT 02/M00 A302 RMK A01 T00161003  RH  087%=      5-min Rain = 0
KEA1 141927Z 20012KT 02/M00 A302 RMK A01 T00171002  RH  087%=      5-min Rain = 0
KEA1 141928Z 19013KT 02/M00 A302 RMK A01 T00171002  RH  087%=      5-min Rain = 0
KEA1 141929Z 19013KT 02/M00 A302 RMK A01 T00161004  RH  087%=      5-min Rain = 0
KEA1 141930Z 19013KT 02/M00 A302 RMK A01 T00151004  RH  087%=      5-min Rain = 0
KEA1 141931Z 20014KT 02/M00 A302 RMK A01 T00151003  RH  088%=      5-min Rain = 0
KEA1 141932Z 19011KT 02/M00 A302 RMK A01 T00151002  RH  088%=      5-min Rain = 0
KEA1 141933Z 19014KT 02/M00 A302 RMK A01 T00161002  RH  088%=      5-min Rain = 0
KEA1 141934Z 19015KT 02/M00 A302 RMK A01 T00161002  RH  087%=      5-min Rain = 0
KEA1 141935Z 18014KT 02/M00 A302 RMK A01 T00151004  RH  087%=      5-min Rain = 0
KEA1 141936Z 19013KT 02/M00 A302 RMK A01 T00151004  RH  088%=      5-min Rain = 0
KEA1 141937Z 19010KT 01/M00 A302 RMK A01 T00141004  RH  088%=      5-min Rain = 0
KEA1 141938Z 20013KT 02/M00 A3019 RMK A01 T00161002  RH  088%=      5-min Rain = 0
KEA1 141939Z 20013KT 02/M00 A3019 RMK A01 T00161002  RH  088%=      5-min Rain = 0
KEA1 141940Z 19012KT 02/M00 A3019 RMK A01 T00161001  RH  088%=      5-min Rain = 0
KEA1 141941Z 19015KT 02/M00 A3019 RMK A01 T00171001  RH  088%=      5-min Rain = 0
KEA1 141942Z 20013KT 02/M00 A3019 RMK A01 T00171003  RH  087%=      5-min Rain = 0
KEA1 141943Z 19013KT 02/M00 A3019 RMK A01 T00161003  RH  087%=      5-min Rain = 0
KEA1 141944Z 19014KT 02/M00 A3019 RMK A01 T00161002  RH  088%=      5-min Rain = 0
KEA1 141945Z 19012KT 02/M00 A3019 RMK A01 T00161003  RH  087%=      5-min Rain = 0
KEA1 141946Z 19011KT 02/M00 A3019 RMK A01 T00161002  RH  088%=      5-min Rain = 0
KEA1 141947Z 18011KT 02/M00 A3019 RMK A01 T00171001  RH  088%=      5-min Rain = 0
KEA1 141948Z 19011KT 02/M00 A3019 RMK A01 T00181001  RH  088%=      5-min Rain = 0
KEA1 141949Z 20012G17KT 02/00 A3019 RMK A01 T00190000  RH  088%=      5-min Rain = 0
KEA1 141950Z 19016KT 02/M00 A3018 RMK A01 T00191001  RH  086%=      5-min Rain = 0
KEA1 141951Z 19015KT 02/M00 A3018 RMK A01 T00181003  RH  086%=      5-min Rain = 0
KEA1 141952Z 19014KT 02/M00 A3018 RMK A01 T00171003  RH  087%=      5-min Rain = 0
KEA1 141953Z 20014KT 02/M00 A3018 RMK A01 T00171002  RH  087%=      5-min Rain = 0
KEA1 141954Z 19015KT 02/M00 A3018 RMK A01 T00171002  RH  087%=      5-min Rain = 0
KEA1 141955Z 19013KT 02/M00 A3018 RMK A01 T00181001  RH  087%=      5-min Rain = 0
KEA1 141956Z 18015KT 02/M00 A3018 RMK A01 T00191001  RH  087%=      5-min Rain = 0
KEA1 141957Z 19014KT 02/M00 A3018 RMK A01 T00191001  RH  087%=      5-min Rain = 0
KEA1 141958Z 19016KT 02/M00 A3018 RMK A01 T00191001  RH  086%=      5-min Rain = 0
KEA1 141959Z 19012KT 02/M00 A3018 RMK A01 T00191002  RH  086%=      5-min Rain = 0
KEA1 142000Z 18013KT 02/00 A3018 RMK A01 T00200001  RH  087%=      5-min Rain = 0
KEA1 142001Z 19012KT 02/00 A3018 RMK A01 T00210000  RH  086%=      5-min Rain = 0
KEA1 142002Z 19013KT 02/00 A3017 RMK A01 T00220001  RH  086%=      5-min Rain = 0
KEA1 142003Z 19013KT 02/00 A3017 RMK A01 T00220000  RH  085%=      5-min Rain = 0
KEA1 142004Z 19012KT 02/M00 A3017 RMK A01 T00221001  RH  085%=      5-min Rain = 0
KEA1 142005Z 19011KT 02/00 A3017 RMK A01 T002100-0  RH  086%=      5-min Rain = 0
KEA1 142006Z 18012KT 02/00 A3017 RMK A01 T00220001  RH  086%=      5-min Rain = 0
KEA1 142007Z 20011KT 02/00 A3017 RMK A01 T00230001  RH  085%=      5-min Rain = 0
KEA1 142008Z 19014KT 02/00 A3017 RMK A01 T00230000  RH  085%=      5-min Rain = 0
KEA1 142009Z 20012KT 02/00 A3017 RMK A01 T00230001  RH  085%=      5-min Rain = 0
KEA1 142010Z 19012KT 02/00 A3017 RMK A01 T00240001  RH  085%=      5-min Rain = 0
KEA1 142011Z 19012KT 02/00 A3017 RMK A01 T00240001  RH  085%=      5-min Rain = 0
KEA1 142012Z 18012KT 02/00 A3017 RMK A01 T00240001  RH  085%=      5-min Rain = 0
KEA1 142013Z 17013KT 02/00 A3017 RMK A01 T00240000  RH  084%=      5-min Rain = 0
KEA1 142014Z 17014KT 02/00 A3017 RMK A01 T002300-0  RH  084%=      5-min Rain = 0
KEA1 142015Z 18012KT 02/M00 A3017 RMK A01 T00231001  RH  085%=      5-min Rain = 0
KEA1 142016Z 19012KT 02/00 A3017 RMK A01 T00230001  RH  085%=      5-min Rain = 0
KEA1 142017Z 19015KT 03/00 A3017 RMK A01 T00250002  RH  085%=      5-min Rain = 0
KEA1 142018Z 18015KT 03/M00 A3016 RMK A01 T00251001  RH  083%=      5-min Rain = 0
KEA1 142019Z 18015KT 02/M00 A3016 RMK A01 T00221003  RH  084%=      5-min Rain = 0
KEA1 142020Z 19012KT 02/M00 A3016 RMK A01 T00221001  RH  085%=      5-min Rain = 0
KEA1 142021Z 20014KT 02/00 A3016 RMK A01 T00240001  RH  085%=      5-min Rain = 0
KEA1 142022Z 20014KT 02/00 A3016 RMK A01 T00240001  RH  085%=      5-min Rain = 0
KEA1 142023Z 20011KT 02/M00 A3016 RMK A01 T00231001  RH  084%=      5-min Rain = 0
KEA1 142024Z 20012KT 02/00 A3016 RMK A01 T00220000  RH  085%=      5-min Rain = 0
KEA1 142025Z 20013KT 02/00 A3016 RMK A01 T00230001  RH  085%=      5-min Rain = 0
KEA1 142026Z 18015KT 02/00 A3016 RMK A01 T00240001  RH  085%=      5-min Rain = 0
KEA1 142027Z 19016KT 02/00 A3016 RMK A01 T00240000  RH  084%=      5-min Rain = 0
KEA1 142028Z 19016KT 02/00 A3016 RMK A01 T002400-0  RH  084%=      5-min Rain = 0
KEA1 142029Z 18012KT 02/00 A3016 RMK A01 T002400-0  RH  084%=      5-min Rain = 0
KEA1 142030Z 19015KT 03/00 A3016 RMK A01 T00260001  RH  084%=      5-min Rain = 0
KEA1 142031Z 20014KT 03/00 A3016 RMK A01 T00260001  RH  084%=      5-min Rain = 0
KEA1 142032Z 20015KT 03/00 A3016 RMK A01 T00260001  RH  083%=      5-min Rain = 0
KEA1 142033Z 20014KT 03/00 A3016 RMK A01 T00260001  RH  084%=      5-min Rain = 0
KEA1 142034Z 20012KT 03/00 A3016 RMK A01 T00260001  RH  084%=      5-min Rain = 0
KEA1 142035Z 18011KT 03/00 A3016 RMK A01 T00260001  RH  084%=      5-min Rain = 0
KEA1 142036Z 19012KT 03/00 A3016 RMK A01 T00270002  RH  084%=      5-min Rain = 0
KEA1 142037Z 20012KT 03/00 A3016 RMK A01 T00280002  RH  083%=      5-min Rain = 0
KEA1 142038Z 19013KT 03/00 A3016 RMK A01 T00280002  RH  083%=      5-min Rain = 0
KEA1 142039Z 19012KT 03/00 A3016 RMK A01 T00270001  RH  083%=      5-min Rain = 0
KEA1 142040Z 19014KT 03/00 A3015 RMK A01 T00270001  RH  083%=      5-min Rain = 0
KEA1 142041Z 19016KT 03/00 A3015 RMK A01 T002600-0  RH  083%=      5-min Rain = 0
KEA1 142042Z 18013KT 02/00 A3016 RMK A01 T002400-0  RH  084%=      5-min Rain = 0
KEA1 142043Z 19014KT 03/00 A3015 RMK A01 T002500-0  RH  084%=      5-min Rain = 0
KEA1 142044Z 18013KT 03/00 A3015 RMK A01 T00250001  RH  084%=      5-min Rain = 0
KEA1 142045Z 18012KT 03/00 A3015 RMK A01 T00250001  RH  084%=      5-min Rain = 0
KEA1 142046Z 17012KT 03/00 A3015 RMK A01 T00250001  RH  084%=      5-min Rain = 0
KEA1 142047Z 18012KT 03/00 A3015 RMK A01 T00250001  RH  084%=      5-min Rain = 0
KEA1 142048Z 17012KT 03/00 A3015 RMK A01 T00260002  RH  085%=      5-min Rain = 0
KEA1 142049Z 18014KT 03/00 A3015 RMK A01 T00260002  RH  084%=      5-min Rain = 0
KEA1 142050Z 17013KT 03/00 A3015 RMK A01 T00260002  RH  084%=      5-min Rain = 0
KEA1 142051Z 17015KT 03/00 A3015 RMK A01 T00260002  RH  084%=      5-min Rain = 0
KEA1 142052Z 18014KT 03/00 A3015 RMK A01 T00250001  RH  084%=      5-min Rain = 0
KEA1 142053Z 17011KT 03/00 A3015 RMK A01 T00250002  RH  085%=      5-min Rain = 0
KEA1 142054Z 19011KT 03/01 A3015 RMK A01 T00270005  RH  085%=      5-min Rain = 0
KEA1 142055Z 18014KT 03/00 A3015 RMK A01 T00290004  RH  084%=      5-min Rain = 0
KEA1 142056Z 18015KT 03/00 A3015 RMK A01 T00280001  RH  083%=      5-min Rain = 0
KEA1 142057Z 19015KT 03/00 A3015 RMK A01 T00260001  RH  083%=      5-min Rain = 0
KEA1 142058Z 19015KT 03/00 A3015 RMK A01 T00260001  RH  084%=      5-min Rain = 0
KEA1 142059Z 19014KT 03/00 A3015 RMK A01 T002500-0  RH  084%=      5-min Rain = 0
KEA1 142100Z 19015KT 03/00 A3015 RMK A01 T00250001  RH  084%=      5-min Rain = 0
KEA1 142101Z 19014KT 03/00 A3015 RMK A01 T00250001  RH  084%=      5-min Rain = 0
KEA1 142102Z 18014KT 03/00 A3015 RMK A01 T00250002  RH  085%=      5-min Rain = 0
KEA1 142103Z 18013KT 03/00 A3015 RMK A01 T00260003  RH  085%=      5-min Rain = 0
KEA1 142104Z 18014KT 03/00 A3015 RMK A01 T00270004  RH  085%=      5-min Rain = 0
KEA1 142105Z 18013KT 03/00 A3015 RMK A01 T00280004  RH  084%=      5-min Rain = 0
KEA1 142106Z 18015KT 03/00 A3015 RMK A01 T00280003  RH  084%=      5-min Rain = 0
KEA1 142107Z 18013KT 03/00 A3015 RMK A01 T00270002  RH  084%=      5-min Rain = 0
KEA1 142108Z 18015KT 03/00 A3015 RMK A01 T00270003  RH  084%=      5-min Rain = 0
KEA1 142109Z 18014KT 03/00 A3015 RMK A01 T00270002  RH  084%=      5-min Rain = 0
KEA1 142110Z 18013KT 03/00 A3015 RMK A01 T00260002  RH  084%=      5-min Rain = 0
KEA1 142111Z 17013KT 03/00 A3015 RMK A01 T00260002  RH  084%=      5-min Rain = 0
KEA1 142112Z 18014KT 03/00 A3014 RMK A01 T00260002  RH  085%=      5-min Rain = 0
KEA1 142113Z 18015KT 03/00 A3014 RMK A01 T00260002  RH  085%=      5-min Rain = 0
KEA1 142114Z 18014KT 03/00 A3014 RMK A01 T00260002  RH  085%=      5-min Rain = 0
KEA1 142115Z 17016KT 03/00 A3014 RMK A01 T00260002  RH  084%=      5-min Rain = 0
KEA1 142116Z 18016KT 03/00 A3014 RMK A01 T00270002  RH  084%=      5-min Rain = 0
KEA1 142117Z 19015KT 03/00 A3014 RMK A01 T00270002  RH  084%=      5-min Rain = 0
KEA1 142118Z 19015KT 03/00 A3014 RMK A01 T00260002  RH  084%=      5-min Rain = 0
KEA1 142119Z 19015KT 03/00 A3014 RMK A01 T00270003  RH  084%=      5-min Rain = 0
KEA1 142120Z 19015KT 03/00 A3014 RMK A01 T00280003  RH  084%=      5-min Rain = 0
KEA1 142121Z 18014KT 03/00 A3014 RMK A01 T00280003  RH  084%=      5-min Rain = 0
KEA1 142122Z 18014KT 03/00 A3014 RMK A01 T00270003  RH  084%=      5-min Rain = 0
KEA1 142123Z 17016KT 03/00 A3014 RMK A01 T00270004  RH  084%=      5-min Rain = 0
KEA1 142124Z 17013KT 03/00 A3014 RMK A01 T00270003  RH  084%=      5-min Rain = 0
KEA1 142125Z 18016KT 03/00 A3014 RMK A01 T00270003  RH  084%=      5-min Rain = 0
KEA1 142126Z 18015KT 03/00 A3014 RMK A01 T00270003  RH  084%=      5-min Rain = 0
KEA1 142127Z 17018KT 03/00 A3014 RMK A01 T00270003  RH  084%=      5-min Rain = 0
KEA1 142128Z 18017KT 03/00 A3014 RMK A01 T00270003  RH  084%=      5-min Rain = 0
KEA1 142129Z 19015KT 03/00 A3014 RMK A01 T00280003  RH  084%=      5-min Rain = 0
KEA1 142130Z 18016KT 03/00 A3014 RMK A01 T00280003  RH  084%=      5-min Rain = 0
KEA1 142131Z 19016KT 03/00 A3014 RMK A01 T00270003  RH  084%=      5-min Rain = 0
KEA1 142132Z 18015KT 03/00 A3014 RMK A01 T00280003  RH  084%=      5-min Rain = 0
KEA1 142133Z 19014KT 03/00 A3014 RMK A01 T00270003  RH  084%=      5-min Rain = 0
KEA1 142134Z 18014KT 03/00 A3014 RMK A01 T00270003  RH  084%=      5-min Rain = 0
KEA1 142135Z 18015KT 03/00 A3014 RMK A01 T00280004  RH  084%=      5-min Rain = 0
KEA1 142136Z 18014KT 03/00 A3014 RMK A01 T00290004  RH  083%=      5-min Rain = 0
KEA1 142137Z 18014KT 03/00 A3014 RMK A01 T00290004  RH  083%=      5-min Rain = 0
KEA1 142138Z 18013KT 03/00 A3014 RMK A01 T00290004  RH  084%=      5-min Rain = 0
KEA1 142139Z 18015KT 03/00 A3014 RMK A01 T00290004  RH  084%=      5-min Rain = 0
KEA1 142140Z 19014KT 03/00 A3014 RMK A01 T00280003  RH  084%=      5-min Rain = 0
KEA1 142141Z 19015KT 03/00 A3014 RMK A01 T00280003  RH  084%=      5-min Rain = 0
KEA1 142142Z 18016KT 03/00 A3014 RMK A01 T00280003  RH  083%=      5-min Rain = 0
KEA1 142143Z 18015KT 03/00 A3014 RMK A01 T00280002  RH  083%=      5-min Rain = 0
KEA1 142144Z 18013KT 03/00 A3014 RMK A01 T00280003  RH  084%=      5-min Rain = 0
KEA1 142145Z 18012G18KT 03/00 A3014 RMK A01 T00280004  RH  084%=      5-min Rain = 0
KEA1 142146Z 17017KT 03/00 A3013 RMK A01 T00290004  RH  084%=      5-min Rain = 0
KEA1 142147Z 17016KT 03/00 A3014 RMK A01 T00280003  RH  083%=      5-min Rain = 0
KEA1 142148Z 18013KT 03/00 A3014 RMK A01 T00280003  RH  084%=      5-min Rain = 0
KEA1 142149Z 17010KT 03/00 A3014 RMK A01 T00280003  RH  084%=      5-min Rain = 0
KEA1 142150Z 17011KT 03/01 A3014 RMK A01 T00290005  RH  084%=      5-min Rain = 0
KEA1 142151Z 19010KT 03/01 A3013 RMK A01 T00310006  RH  084%=      5-min Rain = 0
KEA1 142152Z 18010KT 03/01 A3013 RMK A01 T00310006  RH  083%=      5-min Rain = 0
KEA1 142153Z 17009G14KT 03/01 A3014 RMK A01 T00320006  RH  083%=      5-min Rain = 0
KEA1 142154Z 18013KT 03/01 A3013 RMK A01 T00330007  RH  083%=      5-min Rain = 0
KEA1 142155Z 18016KT 03/01 A3013 RMK A01 T00330006  RH  082%=      5-min Rain = 0
KEA1 142156Z 17014KT 03/01 A3013 RMK A01 T00320005  RH  082%=      5-min Rain = 0
KEA1 142157Z 17012KT 03/01 A3013 RMK A01 T00320005  RH  083%=      5-min Rain = 0
KEA1 142158Z 17016G21KT 03/01 A3013 RMK A01 T00330006  RH  082%=      5-min Rain = 0
KEA1 142159Z 17017KT 03/00 A3013 RMK A01 T00330004  RH  082%=      5-min Rain = 0
KEA1 142200Z 18015KT 03/00 A3013 RMK A01 T00310004  RH  083%=      5-min Rain = 0
KEA1 142201Z 18014KT 03/01 A3013 RMK A01 T00310005  RH  083%=      5-min Rain = 0
KEA1 142202Z 18012KT 03/01 A3013 RMK A01 T00310005  RH  083%=      5-min Rain = 0
KEA1 142203Z 17014KT 03/01 A3013 RMK A01 T00320006  RH  083%=      5-min Rain = 0
KEA1 142204Z 18013KT 03/01 A3013 RMK A01 T00320005  RH  083%=      5-min Rain = 0
KEA1 142205Z 18011KT 03/01 A3013 RMK A01 T00310006  RH  083%=      5-min Rain = 0
KEA1 142206Z 17010KT 03/01 A3013 RMK A01 T00320007  RH  084%=      5-min Rain = 0
KEA1 142207Z 18012G17KT 03/01 A3013 RMK A01 T00340008  RH  083%=      5-min Rain = 0
KEA1 142208Z 18014KT 03/01 A3013 RMK A01 T00340007  RH  082%=      5-min Rain = 0
KEA1 142209Z 18012KT 03/01 A3013 RMK A01 T00330005  RH  082%=      5-min Rain = 0
KEA1 142210Z 17014KT 03/01 A3013 RMK A01 T00320006  RH  083%=      5-min Rain = 0
KEA1 142211Z 17016KT 03/01 A3012 RMK A01 T00310005  RH  083%=      5-min Rain = 0
KEA1 142212Z 17017KT 03/01 A3012 RMK A01 T00310005  RH  083%=      5-min Rain = 0
KEA1 142213Z 18017KT 03/00 A3012 RMK A01 T00290004  RH  083%=      5-min Rain = 0
KEA1 142214Z 18017KT 03/00 A3012 RMK A01 T00290004  RH  084%=      5-min Rain = 0
KEA1 142215Z 18016KT 03/01 A3012 RMK A01 T00290005  RH  084%=      5-min Rain = 0
KEA1 142216Z 18013KT 03/01 A3012 RMK A01 T00290005  RH  084%=      5-min Rain = 0
KEA1 142217Z 18017KT 03/01 A3012 RMK A01 T00310006  RH  084%=      5-min Rain = 0
KEA1 142218Z 17014KT 03/01 A3012 RMK A01 T00310005  RH  084%=      5-min Rain = 0
KEA1 142219Z 18013KT 03/01 A3012 RMK A01 T00300006  RH  084%=      5-min Rain = 0
KEA1 142220Z 17015KT 03/01 A3012 RMK A01 T00300006  RH  084%=      5-min Rain = 0
KEA1 142221Z 17013KT 03/01 A3012 RMK A01 T00300005  RH  084%=      5-min Rain = 0
KEA1 142222Z 18014KT 03/01 A3012 RMK A01 T00300006  RH  084%=      5-min Rain = 0
KEA1 142223Z 17015KT 03/01 A3012 RMK A01 T00300006  RH  084%=      5-min Rain = 0
KEA1 142224Z 17015KT 03/01 A3012 RMK A01 T00300005  RH  084%=      5-min Rain = 0
KEA1 142225Z 17016KT 03/01 A3012 RMK A01 T00290005  RH  084%=      5-min Rain = 0
KEA1 142226Z 17013KT 03/01 A3012 RMK A01 T00290005  RH  084%=      5-min Rain = 0
KEA1 142227Z 18016KT 03/01 A3012 RMK A01 T00300006  RH  085%=      5-min Rain = 0
KEA1 142228Z 18015KT 03/01 A3012 RMK A01 T00300006  RH  084%=      5-min Rain = 0
KEA1 142229Z 17013KT 03/01 A3012 RMK A01 T00300006  RH  084%=      5-min Rain = 0
KEA1 142230Z 17016KT 03/01 A3012 RMK A01 T00310006  RH  084%=      5-min Rain = 0
KEA1 142231Z 18015KT 03/01 A3012 RMK A01 T00300005  RH  083%=      5-min Rain = 0
KEA1 142232Z 18015KT 03/01 A3012 RMK A01 T00300005  RH  084%=      5-min Rain = 0
KEA1 142233Z 18013KT 03/01 A3012 RMK A01 T00300006  RH  084%=      5-min Rain = 0
KEA1 142234Z 18014KT 03/01 A3012 RMK A01 T00300006  RH  084%=      5-min Rain = 0
KEA1 142235Z 18014KT 03/01 A3012 RMK A01 T00310006  RH  084%=      5-min Rain = 0
KEA1 142236Z 17016G21KT 03/01 A3012 RMK A01 T00310006  RH  084%=      5-min Rain = 0
KEA1 142237Z 18017KT 03/00 A3012 RMK A01 T00300004  RH  084%=      5-min Rain = 0
KEA1 142238Z 18014KT 03/00 A3012 RMK A01 T00290004  RH  084%=      5-min Rain = 0
KEA1 142239Z 18016KT 03/01 A3012 RMK A01 T00290005  RH  084%=      5-min Rain = 0
KEA1 142240Z 17014KT 03/01 A3012 RMK A01 T00290005  RH  084%=      5-min Rain = 0
KEA1 142241Z 17013KT 03/01 A3012 RMK A01 T00290005  RH  084%=      5-min Rain = 0
KEA1 142242Z 18011KT 03/01 A3012 RMK A01 T00290006  RH  085%=      5-min Rain = 0
KEA1 142243Z 17013KT 03/01 A3012 RMK A01 T00300006  RH  084%=      5-min Rain = 0
KEA1 142244Z 17014KT 03/01 A3012 RMK A01 T00300005  RH  084%=      5-min Rain = 0
KEA1 142245Z 18011KT 03/01 A3012 RMK A01 T00300006  RH  084%=      5-min Rain = 0
KEA1 142246Z 18011KT 03/01 A3012 RMK A01 T00300006  RH  084%=      5-min Rain = 0
KEA1 142247Z 18010KT 03/01 A3012 RMK A01 T00310007  RH  084%=      5-min Rain = 0
KEA1 142248Z 17014KT 03/01 A3012 RMK A01 T00310007  RH  084%=      5-min Rain = 0
KEA1 142249Z 18014KT 03/01 A3012 RMK A01 T00310006  RH  084%=      5-min Rain = 0
KEA1 142250Z 19016KT 03/01 A3012 RMK A01 T00300005  RH  084%=      5-min Rain = 0
KEA1 142251Z 19014KT 03/00 A3012 RMK A01 T00280004  RH  084%=      5-min Rain = 0
KEA1 142252Z 19014KT 03/00 A3012 RMK A01 T00280004  RH  085%=      5-min Rain = 0
KEA1 142253Z 19012KT 03/01 A3012 RMK A01 T00280005  RH  085%=      5-min Rain = 0
KEA1 142254Z 19011KT 03/01 A3012 RMK A01 T00280005  RH  085%=      5-min Rain = 0
KEA1 142255Z 17012KT 03/01 A3012 RMK A01 T00290007  RH  085%=      5-min Rain = 0
KEA1 142256Z 18014KT 03/01 A3012 RMK A01 T00300006  RH  084%=      5-min Rain = 0
KEA1 142257Z 18014KT 03/01 A3012 RMK A01 T00300005  RH  084%=      5-min Rain = 0
KEA1 142258Z 18014KT 03/01 A3012 RMK A01 T00290005  RH  084%=      5-min Rain = 0
KEA1 142259Z 18013KT 03/01 A3012 RMK A01 T00290005  RH  084%=      5-min Rain = 0
KEA1 142300Z 18014KT 03/01 A3012 RMK A01 T00280005  RH  085%=      5-min Rain = 0
KEA1 142301Z 18013KT 03/01 A3012 RMK A01 T00290006  RH  085%=      5-min Rain = 0
KEA1 142302Z 17013KT 03/01 A3012 RMK A01 T00280006  RH  085%=      5-min Rain = 0
KEA1 142303Z 17012KT 03/01 A3012 RMK A01 T00280006  RH  086%=      5-min Rain = 0
KEA1 142304Z 18012KT 03/01 A3012 RMK A01 T00290007  RH  085%=      5-min Rain = 0
KEA1 142305Z 18013KT 03/01 A3012 RMK A01 T00290007  RH  085%=      5-min Rain = 0
KEA1 142306Z 18015KT 03/01 A3012 RMK A01 T00290007  RH  085%=      5-min Rain = 0
KEA1 142307Z 18013KT 03/01 A3012 RMK A01 T00290006  RH  085%=      5-min Rain = 0
KEA1 142308Z 18010KT 03/01 A3012 RMK A01 T00290006  RH  085%=      5-min Rain = 0
KEA1 142309Z 18010KT 03/01 A3012 RMK A01 T00290006  RH  085%=      5-min Rain = 0
KEA1 142310Z 18011KT 03/01 A3012 RMK A01 T00290007  RH  085%=      5-min Rain = 0
KEA1 142311Z 18010KT 03/01 A3012 RMK A01 T00290006  RH  085%=      5-min Rain = 0
KEA1 142312Z 18011KT 03/01 A3012 RMK A01 T00290007  RH  085%=      5-min Rain = 0
KEA1 142313Z 18013KT 03/01 A3012 RMK A01 T00290006  RH  085%=      5-min Rain = 0
KEA1 142314Z 18011KT 03/01 A3012 RMK A01 T00290006  RH  085%=      5-min Rain = 0
KEA1 142315Z 17011KT 03/01 A3012 RMK A01 T00290006  RH  085%=      5-min Rain = 0
KEA1 142316Z 18011KT 03/01 A3012 RMK A01 T00290006  RH  085%=      5-min Rain = 0
KEA1 142317Z 18011KT 03/01 A3012 RMK A01 T00290006  RH  085%=      5-min Rain = 0
KEA1 142318Z 17011KT 03/01 A3012 RMK A01 T00290006  RH  085%=      5-min Rain = 0
KEA1 142319Z 17013KT 03/01 A3012 RMK A01 T00280005  RH  085%=      5-min Rain = 0
KEA1 142320Z 17012KT 03/00 A3012 RMK A01 T00280004  RH  085%=      5-min Rain = 0
KEA1 142321Z 17012KT 03/01 A3012 RMK A01 T00270005  RH  085%=      5-min Rain = 0
KEA1 142322Z 18011KT 03/01 A3012 RMK A01 T00270005  RH  085%=      5-min Rain = 0
KEA1 142323Z 18013KT 03/01 A3012 RMK A01 T00270005  RH  085%=      5-min Rain = 0
KEA1 142324Z 18012KT 03/01 A3012 RMK A01 T00270005  RH  085%=      5-min Rain = 0
KEA1 142325Z 18013KT 03/01 A3012 RMK A01 T00270005  RH  085%=      5-min Rain = 0
KEA1 142326Z 18011KT 03/00 A3012 RMK A01 T00270004  RH  085%=      5-min Rain = 0
KEA1 142327Z 18013KT 03/01 A3012 RMK A01 T00270005  RH  085%=      5-min Rain = 0
KEA1 142328Z 18015KT 03/00 A3012 RMK A01 T00270004  RH  085%=      5-min Rain = 0
KEA1 142329Z 18015KT 03/00 A3012 RMK A01 T00270004  RH  085%=      5-min Rain = 0
KEA1 142330Z 17015KT 03/00 A3012 RMK A01 T00260004  RH  085%=      5-min Rain = 0
KEA1 142331Z 18013KT 03/00 A3012 RMK A01 T00260004  RH  085%=      5-min Rain = 0
KEA1 142332Z 18014KT 03/00 A3012 RMK A01 T00260004  RH  086%=      5-min Rain = 0
KEA1 142333Z 18013KT 03/00 A3012 RMK A01 T00260004  RH  086%=      5-min Rain = 0
KEA1 142334Z 17014KT 03/00 A3012 RMK A01 T00260004  RH  086%=      5-min Rain = 0
KEA1 142335Z 17014KT 03/00 A3012 RMK A01 T00260004  RH  086%=      5-min Rain = 0
KEA1 142336Z 17014KT 03/00 A3012 RMK A01 T00260004  RH  086%=      5-min Rain = 0
KEA1 142337Z 17013KT 03/00 A3012 RMK A01 T00260004  RH  086%=      5-min Rain = 0
KEA1 142338Z 18013KT 03/00 A3012 RMK A01 T00260004  RH  086%=      5-min Rain = 0
KEA1 142339Z 18015KT 03/00 A3012 RMK A01 T00260004  RH  086%=      5-min Rain = 0
KEA1 142340Z 18013KT 03/00 A3012 RMK A01 T00250004  RH  086%=      5-min Rain = 0
KEA1 142341Z 18012G17KT 03/00 A3012 RMK A01 T00250004  RH  086%=      5-min Rain = 0
KEA1 142342Z 18017KT 03/00 A3012 RMK A01 T00250004  RH  086%=      5-min Rain = 0
KEA1 142343Z 19015KT 03/00 A3012 RMK A01 T00250003  RH  086%=      5-min Rain = 0
KEA1 142344Z 18014KT 02/00 A3012 RMK A01 T00240003  RH  086%=      5-min Rain = 0
KEA1 142345Z 18011KT 02/00 A3012 RMK A01 T00240003  RH  086%=      5-min Rain = 0
KEA1 142346Z 17013KT 02/00 A3012 RMK A01 T00240003  RH  086%=      5-min Rain = 0
KEA1 142347Z 18011KT 02/00 A3012 RMK A01 T00240003  RH  086%=      5-min Rain = 0
KEA1 142348Z 17012KT 03/00 A3012 RMK A01 T00250004  RH  086%=      5-min Rain = 0
KEA1 142349Z 17010KT 03/00 A3012 RMK A01 T00250004  RH  086%=      5-min Rain = 0
KEA1 142350Z 18011KT 03/00 A3012 RMK A01 T00250004  RH  086%=      5-min Rain = 0
KEA1 142351Z 18011KT 03/00 A3012 RMK A01 T00250004  RH  086%=      5-min Rain = 0
KEA1 142352Z 18011KT 03/00 A3012 RMK A01 T00260004  RH  086%=      5-min Rain = 0
KEA1 142353Z 18010KT 03/00 A3012 RMK A01 T00260004  RH  086%=      5-min Rain = 0
KEA1 142354Z 18009KT 03/00 A3012 RMK A01 T00260004  RH  086%=      5-min Rain = 0
KEA1 142355Z 18010KT 03/01 A3012 RMK A01 T00260005  RH  086%=      5-min Rain = 0
KEA1 142356Z 18011G16KT 03/01 A3012 RMK A01 T00260005  RH  086%=      5-min Rain = 0
KEA1 142357Z 18015KT 03/01 A3012 RMK A01 T00260005  RH  086%=      5-min Rain = 0
KEA1 142358Z 18014KT 03/01 A3012 RMK A01 T00270005  RH  086%=      5-min Rain = 0
KEA1 142359Z 18015KT 03/01 A3012 RMK A01 T00270005  RH  086%=      5-min Rain = 0
KEA1 150000Z 18014G19KT 03/00 A3012 RMK A01 T00260004  RH  085%=      5-min Rain = 0
KEA1 150001Z 18013KT 03/01 A3012 RMK A01 T00260005  RH  086%=      5-min Rain = 0
KEA1 150002Z 17014KT 03/00 A3012 RMK A01 T00260004  RH  086%=      5-min Rain = 0
KEA1 150003Z 17013KT 03/00 A3012 RMK A01 T00250004  RH  086%=      5-min Rain = 0
KEA1 150004Z 17016KT 03/00 A3012 RMK A01 T00250004  RH  086%=      5-min Rain = 0
KEA1 150005Z 17015KT 03/00 A3012 RMK A01 T00250004  RH  086%=      5-min Rain = 0
KEA1 150006Z 17015KT 03/00 A3011 RMK A01 T00250004  RH  086%=      5-min Rain = 0
KEA1 150007Z 17015KT 03/00 A3011 RMK A01 T00250004  RH  086%=      5-min Rain = 0
KEA1 150008Z 18013KT 03/00 A3011 RMK A01 T00250004  RH  086%=      5-min Rain = 0
KEA1 150009Z 18012KT 03/00 A3011 RMK A01 T00250004  RH  086%=      5-min Rain = 0
KEA1 150010Z 18012KT 03/00 A3012 RMK A01 T00250004  RH  086%=      5-min Rain = 0
KEA1 150011Z 17014KT 03/00 A3012 RMK A01 T00250004  RH  086%=      5-min Rain = 0
KEA1 150012Z 17011KT 03/00 A3012 RMK A01 T00250004  RH  086%=      5-min Rain = 0
KEA1 150013Z 16012KT 03/00 A3012 RMK A01 T00250004  RH  086%=      5-min Rain = 0
KEA1 150014Z 16015KT 03/00 A3012 RMK A01 T00250004  RH  086%=      5-min Rain = 0
KEA1 150015Z 17013KT 03/00 A3012 RMK A01 T00250004  RH  086%=      5-min Rain = 0
KEA1 150016Z 17013KT 03/00 A3012 RMK A01 T00250004  RH  086%=      5-min Rain = 0
KEA1 150017Z 18012KT 03/00 A3012 RMK A01 T00250004  RH  086%=      5-min Rain = 0
KEA1 150018Z 17012KT 03/00 A3012 RMK A01 T00250004  RH  086%=      5-min Rain = 0
KEA1 150019Z 17013KT 03/00 A3012 RMK A01 T00250004  RH  086%=      5-min Rain = 0
KEA1 150020Z 17012KT 03/00 A3012 RMK A01 T00250004  RH  086%=      5-min Rain = 0
KEA1 150021Z 17013KT 03/00 A3012 RMK A01 T00250004  RH  086%=      5-min Rain = 0
KEA1 150022Z 17012KT 03/00 A3012 RMK A01 T00250004  RH  086%=      5-min Rain = 0
KEA1 150023Z 17012KT 03/00 A3012 RMK A01 T00250004  RH  086%=      5-min Rain = 0
KEA1 150024Z 17011KT 03/00 A3012 RMK A01 T00250004  RH  086%=      5-min Rain = 0
KEA1 150025Z 18011KT 03/00 A3012 RMK A01 T00250004  RH  086%=      5-min Rain = 0
KEA1 150026Z 17009KT 03/01 A3012 RMK A01 T00250005  RH  087%=      5-min Rain = 0
KEA1 150027Z 17012KT 03/01 A3012 RMK A01 T00250005  RH  087%=      5-min Rain = 0
KEA1 150028Z 17012KT 03/01 A3012 RMK A01 T00250005  RH  087%=      5-min Rain = 0
KEA1 150029Z 17010KT 03/01 A3012 RMK A01 T00250005  RH  087%=      5-min Rain = 0
KEA1 150030Z 16009KT 03/00 A3012 RMK A01 T00250004  RH  086%=      5-min Rain = 0
KEA1 150031Z 17013KT 03/00 A3012 RMK A01 T00250004  RH  086%=      5-min Rain = 0
KEA1 150032Z 17012G17KT 03/00 A3012 RMK A01 T00250004  RH  086%=      5-min Rain = 0
KEA1 150033Z 17013KT 03/00 A3012 RMK A01 T00250004  RH  086%=      5-min Rain = 0
KEA1 150034Z 17012KT 03/00 A3012 RMK A01 T00250004  RH  086%=      5-min Rain = 0
KEA1 150035Z 18013KT 02/00 A3012 RMK A01 T00240004  RH  086%=      5-min Rain = 0
KEA1 150036Z 18013KT 02/00 A3012 RMK A01 T00240004  RH  086%=      5-min Rain = 0
KEA1 150037Z 17016KT 02/00 A3012 RMK A01 T00240003  RH  086%=      5-min Rain = 0
KEA1 150038Z 17016KT 02/00 A3012 RMK A01 T00240003  RH  086%=      5-min Rain = 0
KEA1 150039Z 18013KT 02/00 A3012 RMK A01 T00240003  RH  086%=      5-min Rain = 0
KEA1 150040Z 18013KT 02/00 A3012 RMK A01 T00240003  RH  086%=      5-min Rain = 0
KEA1 150041Z 17013KT 02/00 A3012 RMK A01 T00240003  RH  086%=      5-min Rain = 0
KEA1 150042Z 17012KT 02/00 A3012 RMK A01 T00240004  RH  086%=      5-min Rain = 0
KEA1 150043Z 17010KT 02/00 A3012 RMK A01 T00240003  RH  086%=      5-min Rain = 0
KEA1 150044Z 17010KT 02/00 A3012 RMK A01 T00240003  RH  086%=      5-min Rain = 0
KEA1 150045Z 17011KT 02/00 A3012 RMK A01 T00240004  RH  086%=      5-min Rain = 0
KEA1 150046Z 17011KT 02/00 A3012 RMK A01 T00240003  RH  086%=      5-min Rain = 0
KEA1 150047Z 17009KT 02/00 A3012 RMK A01 T00240003  RH  086%=      5-min Rain = 0
KEA1 150048Z 17010KT 02/00 A3012 RMK A01 T00240003  RH  086%=      5-min Rain = 0
KEA1 150049Z 17008KT 02/00 A3012 RMK A01 T00240003  RH  086%=      5-min Rain = 0
KEA1 150050Z 17009KT 02/00 A3012 RMK A01 T00240003  RH  086%=      5-min Rain = 0
KEA1 150051Z 17009KT 02/00 A3012 RMK A01 T00240004  RH  086%=      5-min Rain = 0
KEA1 150052Z 16007KT 02/00 A3012 RMK A01 T00240004  RH  086%=      5-min Rain = 0
KEA1 150053Z 17007KT 02/00 A3012 RMK A01 T00240004  RH  086%=      5-min Rain = 0
KEA1 150054Z 17009KT 02/00 A3012 RMK A01 T00240004  RH  087%=      5-min Rain = 0
KEA1 150055Z 16011KT 02/00 A3012 RMK A01 T00240004  RH  087%=      5-min Rain = 0
KEA1 150056Z 16011KT 02/00 A3012 RMK A01 T00240004  RH  086%=      5-min Rain = 0
KEA1 150057Z 16011KT 02/00 A3012 RMK A01 T00240004  RH  086%=      5-min Rain = 0
KEA1 150058Z 16010KT 02/00 A3012 RMK A01 T00240004  RH  086%=      5-min Rain = 0
KEA1 150059Z 16012KT 02/00 A3012 RMK A01 T00240004  RH  086%=      5-min Rain = 0
KEA1 150100Z 15011KT 02/00 A3012 RMK A01 T00240004  RH  086%=      5-min Rain = 0
KEA1 150101Z 16010KT 03/00 A3012 RMK A01 T00250004  RH  086%=      5-min Rain = 0
KEA1 150102Z 16009KT 03/01 A3012 RMK A01 T00250005  RH  086%=      5-min Rain = 0
KEA1 150103Z 15012KT 03/00 A3012 RMK A01 T00250004  RH  086%=      5-min Rain = 0
KEA1 150104Z 16012KT 03/00 A3012 RMK A01 T00250004  RH  086%=      5-min Rain = 0
KEA1 150105Z 15010KT 03/00 A3012 RMK A01 T00250004  RH  086%=      5-min Rain = 0
KEA1 150106Z 16010KT 03/00 A3013 RMK A01 T00250004  RH  087%=      5-min Rain = 0
KEA1 150107Z 15008KT 02/00 A3013 RMK A01 T00240004  RH  087%=      5-min Rain = 0
KEA1 150108Z 16008KT 02/01 A3013 RMK A01 T00240005  RH  087%=      5-min Rain = 0
KEA1 150109Z 15010KT 02/01 A3013 RMK A01 T00240005  RH  087%=      5-min Rain = 0
KEA1 150110Z 15009KT 02/00 A3013 RMK A01 T00240004  RH  087%=      5-min Rain = 0
KEA1 150111Z 15010KT 02/01 A3013 RMK A01 T00240005  RH  087%=      5-min Rain = 0
KEA1 150112Z 16009KT 02/01 A3013 RMK A01 T00240005  RH  087%=      5-min Rain = 0
KEA1 150113Z 16011KT 02/01 A3013 RMK A01 T00240005  RH  087%=      5-min Rain = 0
KEA1 150114Z 16011KT 03/01 A3013 RMK A01 T00250005  RH  087%=      5-min Rain = 0
KEA1 150115Z 15010KT 02/00 A3013 RMK A01 T00240004  RH  087%=      5-min Rain = 0
KEA1 150116Z 15009KT 02/00 A3013 RMK A01 T00240004  RH  087%=      5-min Rain = 0
KEA1 150117Z 16009KT 02/00 A3013 RMK A01 T00240004  RH  087%=      5-min Rain = 0
KEA1 150118Z 15011KT 02/00 A3013 RMK A01 T00240004  RH  087%=      5-min Rain = 0
KEA1 150119Z 16010KT 02/00 A3013 RMK A01 T00240004  RH  087%=      5-min Rain = 0
KEA1 150120Z 16012KT 02/00 A3013 RMK A01 T00230004  RH  087%=      5-min Rain = 0
KEA1 150121Z 16013KT 02/00 A3013 RMK A01 T00230004  RH  087%=      5-min Rain = 0
KEA1 150122Z 16012KT 02/00 A3013 RMK A01 T00230003  RH  087%=      5-min Rain = 0
KEA1 150123Z 15012KT 02/00 A3013 RMK A01 T00230003  RH  087%=      5-min Rain = 0
KEA1 150124Z 15013KT 02/00 A3013 RMK A01 T00220003  RH  087%=      5-min Rain = 0
KEA1 150125Z 16013KT 02/00 A3013 RMK A01 T00220003  RH  087%=      5-min Rain = 0
KEA1 150126Z 16013KT 02/00 A3012 RMK A01 T00220003  RH  087%=      5-min Rain = 0
KEA1 150127Z 16014KT 02/00 A3012 RMK A01 T00210003  RH  087%=      5-min Rain = 0
KEA1 150128Z 15011KT 02/00 A3012 RMK A01 T00220003  RH  087%=      5-min Rain = 0
KEA1 150129Z 15011KT 02/00 A3013 RMK A01 T00210003  RH  088%=      5-min Rain = 0
KEA1 150130Z 16012KT 02/00 A3013 RMK A01 T00210003  RH  088%=      5-min Rain = 0
KEA1 150131Z 15011KT 02/00 A3013 RMK A01 T00210003  RH  088%=      5-min Rain = 0
KEA1 150132Z 16012KT 02/00 A3013 RMK A01 T00210003  RH  088%=      5-min Rain = 0
KEA1 150133Z 15013KT 02/00 A3013 RMK A01 T00210003  RH  088%=      5-min Rain = 0
KEA1 150134Z 16012KT 02/00 A3013 RMK A01 T00210003  RH  088%=      5-min Rain = 0
KEA1 150135Z 15010KT 02/00 A3013 RMK A01 T00210003  RH  088%=      5-min Rain = 0
KEA1 150136Z 15011KT 02/00 A3013 RMK A01 T00210003  RH  088%=      5-min Rain = 0
KEA1 150137Z 15009KT 02/00 A3013 RMK A01 T00210003  RH  088%=      5-min Rain = 0
KEA1 150138Z 15011KT 02/00 A3013 RMK A01 T00210003  RH  088%=      5-min Rain = 0
KEA1 150139Z 15009KT 02/00 A3013 RMK A01 T00210003  RH  088%=      5-min Rain = 0
KEA1 150140Z 15009KT 02/00 A3013 RMK A01 T00210003  RH  088%=      5-min Rain = 0
KEA1 150141Z 16011KT 02/00 A3013 RMK A01 T00210003  RH  088%=      5-min Rain = 0
KEA1 150142Z 15010KT 02/00 A3013 RMK A01 T00210003  RH  088%=      5-min Rain = 0
KEA1 150143Z 15009KT 02/00 A3013 RMK A01 T00200003  RH  088%=      5-min Rain = 0
KEA1 150144Z 15011KT 02/00 A3013 RMK A01 T00210003  RH  088%=      5-min Rain = 0
KEA1 150145Z 15011KT 02/00 A3013 RMK A01 T00210003  RH  088%=      5-min Rain = 0
KEA1 150146Z 15013KT 02/00 A3013 RMK A01 T00210003  RH  088%=      5-min Rain = 0
KEA1 150147Z 15014KT 02/00 A3013 RMK A01 T00210003  RH  088%=      5-min Rain = 0
KEA1 150148Z 15013KT 02/00 A3013 RMK A01 T00210004  RH  088%=      5-min Rain = 0
KEA1 150149Z 16013KT 02/00 A3013 RMK A01 T00200003  RH  089%=      5-min Rain = 0
KEA1 150150Z 15010KT 02/00 A3013 RMK A01 T00200004  RH  089%=      5-min Rain = 0
KEA1 150151Z 15011KT 02/00 A3013 RMK A01 T00200004  RH  089%=      5-min Rain = 0
KEA1 150152Z 15008KT 02/00 A3013 RMK A01 T00200004  RH  089%=      5-min Rain = 0
KEA1 150153Z 16012KT 02/00 A3013 RMK A01 T00200004  RH  089%=      5-min Rain = 0
KEA1 150154Z 15012KT 02/00 A3013 RMK A01 T00200004  RH  089%=      5-min Rain = 0
KEA1 150155Z 15011KT 02/00 A3013 RMK A01 T00190003  RH  089%=      5-min Rain = 0
KEA1 150156Z 15012KT 02/00 A3013 RMK A01 T00190003  RH  089%=      5-min Rain = 0
KEA1 150157Z 15013KT 02/00 A3013 RMK A01 T00190004  RH  089%=      5-min Rain = 0
KEA1 150158Z 15012KT 02/00 A3013 RMK A01 T00190003  RH  089%=      5-min Rain = 0
KEA1 150159Z 16013KT 02/00 A3013 RMK A01 T00190003  RH  090%=      5-min Rain = 0
KEA1 150200Z 16013KT 02/00 A3013 RMK A01 T00190003  RH  090%=      5-min Rain = 0
KEA1 150201Z 15015KT 02/00 A3013 RMK A01 T00190003  RH  090%=      5-min Rain = 0
KEA1 150202Z 15014KT 02/00 A3013 RMK A01 T00180003  RH  090%=      5-min Rain = 0
KEA1 150203Z 16013KT 02/00 A3013 RMK A01 T00180003  RH  090%=      5-min Rain = 0
KEA1 150204Z 16014KT 02/00 A3013 RMK A01 T00180003  RH  090%=      5-min Rain = 0
KEA1 150205Z 16016KT 02/00 A3012 RMK A01 T00180003  RH  090%=      5-min Rain = 0
KEA1 150206Z 16014KT 02/00 A3012 RMK A01 T00180003  RH  090%=      5-min Rain = 0
KEA1 150207Z 15013KT 02/00 A3012 RMK A01 T00170003  RH  090%=      5-min Rain = 0
KEA1 150208Z 15014KT 02/00 A3013 RMK A01 T00180003  RH  090%=      5-min Rain = 0
KEA1 150209Z 16016KT 02/00 A3012 RMK A01 T00170003  RH  090%=      5-min Rain = 0
KEA1 150210Z 16015KT 02/00 A3012 RMK A01 T00170003  RH  090%=      5-min Rain = 0
KEA1 150211Z 16012KT 02/00 A3012 RMK A01 T00170003  RH  091%=      5-min Rain = 0
KEA1 150212Z 15015KT 02/00 A3012 RMK A01 T00170003  RH  091%=      5-min Rain = 0
KEA1 150213Z 15015KT 02/00 A3012 RMK A01 T00170003  RH  091%=      5-min Rain = 0
KEA1 150214Z 16017KT 02/00 A3012 RMK A01 T00170003  RH  091%=      5-min Rain = 0
KEA1 150215Z 16017KT 02/00 A3012 RMK A01 T00160003  RH  091%=      5-min Rain = 0
KEA1 150216Z 16014KT 02/00 A3012 RMK A01 T00160003  RH  091%=      5-min Rain = 0
KEA1 150217Z 16015KT 02/00 A3012 RMK A01 T00160003  RH  091%=      5-min Rain = 0
KEA1 150218Z 16014KT 02/00 A3012 RMK A01 T00150002  RH  091%=      5-min Rain = 0
KEA1 150219Z 16015KT 02/00 A3012 RMK A01 T00150003  RH  091%=      5-min Rain = 0
KEA1 150220Z 16013KT 02/00 A3012 RMK A01 T00150002  RH  091%=      5-min Rain = 0
KEA1 150221Z 15012KT 02/00 A3012 RMK A01 T00150003  RH  091%=      5-min Rain = 0
KEA1 150222Z 16014KT 02/00 A3012 RMK A01 T00150003  RH  091%=      5-min Rain = 0
KEA1 150223Z 16012G17KT 02/00 A3012 RMK A01 T00150003  RH  091%=      5-min Rain = 0
KEA1 150224Z 16015KT 02/00 A3012 RMK A01 T00150002  RH  091%=      5-min Rain = 0
KEA1 150225Z 16014KT 02/00 A3012 RMK A01 T00150003  RH  092%=      5-min Rain = 0
KEA1 150226Z 15012KT 02/00 A3013 RMK A01 T00150003  RH  092%=      5-min Rain = 0
KEA1 150227Z 16013KT 02/00 A3013 RMK A01 T00150003  RH  092%=      5-min Rain = 0
KEA1 150228Z 16015KT 02/00 A3013 RMK A01 T00150003  RH  092%=      5-min Rain = 0
KEA1 150229Z 16011KT 02/00 A3013 RMK A01 T00150003  RH  092%=      5-min Rain = 0
KEA1 150230Z 16015KT 02/00 A3013 RMK A01 T00150003  RH  092%=      5-min Rain = 0
KEA1 150231Z 16014KT 02/00 A3013 RMK A01 T00150003  RH  092%=      5-min Rain = 0
KEA1 150232Z 15013KT 02/00 A3013 RMK A01 T00150003  RH  092%=      5-min Rain = 0
KEA1 150233Z 16012KT 02/00 A3013 RMK A01 T00150003  RH  092%=      5-min Rain = 0
KEA1 150234Z 16010KT 02/00 A3013 RMK A01 T00150003  RH  092%=      5-min Rain = 0
KEA1 150235Z 16008KT 02/00 A3013 RMK A01 T00150003  RH  092%=      5-min Rain = 0
KEA1 150236Z 16010KT 02/00 A3013 RMK A01 T00150003  RH  092%=      5-min Rain = 0
KEA1 150237Z 16012KT 02/00 A3013 RMK A01 T00150003  RH  092%=      5-min Rain = 0
KEA1 150238Z 16012KT 02/00 A3013 RMK A01 T00150003  RH  092%=      5-min Rain = 0
KEA1 150239Z 15014KT 02/00 A3013 RMK A01 T00150003  RH  092%=      5-min Rain = 0
KEA1 150240Z 15013KT 01/00 A3013 RMK A01 T00140003  RH  092%=      5-min Rain = 0
KEA1 150241Z 16013KT 02/00 A3013 RMK A01 T00150003  RH  092%=      5-min Rain = 0
KEA1 150242Z 16012KT 02/00 A3013 RMK A01 T00150003  RH  092%=      5-min Rain = 0
KEA1 150243Z 16011KT 02/00 A3013 RMK A01 T00150003  RH  092%=      5-min Rain = 0
KEA1 150244Z 16008KT 02/00 A3013 RMK A01 T00150004  RH  092%=      5-min Rain = 0
KEA1 150245Z 17010KT 02/00 A3014 RMK A01 T00150003  RH  092%=      5-min Rain = 0
KEA1 150246Z 16010KT 02/00 A3013 RMK A01 T00150003  RH  092%=      5-min Rain = 0
KEA1 150247Z 16012KT 01/00 A3013 RMK A01 T00140003  RH  092%=      5-min Rain = 0
KEA1 150248Z 17009KT 02/00 A3014 RMK A01 T00150004  RH  092%=      5-min Rain = 0
KEA1 150249Z 17010KT 02/00 A3013 RMK A01 T00150003  RH  092%=      5-min Rain = 0
KEA1 150250Z 17009KT 02/00 A3014 RMK A01 T00150003  RH  092%=      5-min Rain = 0
KEA1 150251Z 17008KT 02/00 A3014 RMK A01 T00150003  RH  092%=      5-min Rain = 0
KEA1 150252Z 17007KT 01/00 A3014 RMK A01 T00140003  RH  092%=      5-min Rain = 0
KEA1 150253Z 16009KT 01/00 A3014 RMK A01 T00140003  RH  092%=      5-min Rain = 0
KEA1 150254Z 17007KT 01/00 A3014 RMK A01 T00140003  RH  092%=      5-min Rain = 0
KEA1 150255Z 18007KT 01/00 A3013 RMK A01 T00140003  RH  092%=      5-min Rain = 0
KEA1 150256Z 18009KT 01/00 A3013 RMK A01 T00140002  RH  092%=      5-min Rain = 0
KEA1 150257Z 17007KT 01/00 A3013 RMK A01 T00140002  RH  092%=      5-min Rain = 0
KEA1 150258Z 18007KT 01/00 A3013 RMK A01 T00130002  RH  092%=      5-min Rain = 0
KEA1 150259Z 17006KT 01/00 A3013 RMK A01 T00130001  RH  092%=      5-min Rain = 0
KEA1 150300Z 17006KT 01/00 A3013 RMK A01 T001100-0  RH  092%=      5-min Rain = 0
KEA1 150301Z 17006KT 01/M00 A3013 RMK A01 T00111001  RH  092%=      5-min Rain = 0
KEA1 150302Z 18006KT 01/M00 A3013 RMK A01 T00101001  RH  092%=      5-min Rain = 0
KEA1 150303Z 18006KT 01/00 A3013 RMK A01 T001000-0  RH  093%=      5-min Rain = 0
KEA1 150304Z 18006KT 01/M00 A3013 RMK A01 T00101001  RH  092%=      5-min Rain = 0
KEA1 150305Z 18006KT 01/M00 A3013 RMK A01 T00101001  RH  092%=      5-min Rain = 0
KEA1 150306Z 18006KT 01/M00 A3013 RMK A01 T00091002  RH  093%=      5-min Rain = 0
KEA1 150307Z 18006KT 01/M00 A3013 RMK A01 T00091002  RH  093%=      5-min Rain = 0
KEA1 150308Z 18006KT 01/M00 A3013 RMK A01 T00081002  RH  093%=      5-min Rain = 0
KEA1 150309Z 18006KT 01/M00 A3013 RMK A01 T00081003  RH  093%=      5-min Rain = 0
KEA1 150310Z 17006KT 01/M00 A3013 RMK A01 T00071003  RH  093%=      5-min Rain = 0
KEA1 150311Z 18006KT 01/M00 A3013 RMK A01 T00071004  RH  093%=      5-min Rain = 0
KEA1 150312Z 18007KT 01/M00 A3013 RMK A01 T00061004  RH  093%=      5-min Rain = 0
KEA1 150313Z 18006KT 01/M00 A3013 RMK A01 T00061004  RH  093%=      5-min Rain = 0
KEA1 150314Z 18007KT 01/M01 A3013 RMK A01 T00061005  RH  093%=      5-min Rain = 0
KEA1 150315Z 18007KT 01/M01 A3013 RMK A01 T00051005  RH  093%=      5-min Rain = 0
KEA1 150316Z 17008KT 01/M00 A3013 RMK A01 T00051004  RH  093%=      5-min Rain = 0
KEA1 150317Z 17008KT 01/M00 A3013 RMK A01 T00061004  RH  093%=      5-min Rain = 0
KEA1 150318Z 17009KT 01/M00 A3013 RMK A01 T00061003  RH  093%=      5-min Rain = 0
KEA1 150319Z 17008KT 01/M00 A3013 RMK A01 T00061004  RH  093%=      5-min Rain = 0
KEA1 150320Z 17009KT 01/M00 A3013 RMK A01 T00061004  RH  093%=      5-min Rain = 0
KEA1 150321Z 17009KT 01/M00 A3013 RMK A01 T00061004  RH  093%=      5-min Rain = 0
KEA1 150322Z 17009KT 01/M00 A3013 RMK A01 T00061003  RH  093%=      5-min Rain = 0
KEA1 150323Z 17009KT 01/M00 A3013 RMK A01 T00061003  RH  093%=      5-min Rain = 0
KEA1 150324Z 17009KT 01/M00 A3013 RMK A01 T00061004  RH  093%=      5-min Rain = 0
KEA1 150325Z 17008KT 01/M00 A3013 RMK A01 T00061004  RH  093%=      5-min Rain = 0
KEA1 150326Z 17009KT 01/M00 A3013 RMK A01 T00061004  RH  093%=      5-min Rain = 0
KEA1 150327Z 17009KT 01/M00 A3013 RMK A01 T00061004  RH  093%=      5-min Rain = 0
KEA1 150328Z 17009KT 01/M00 A3013 RMK A01 T00051004  RH  093%=      5-min Rain = 0
KEA1 150329Z 17009KT 01/M00 A3013 RMK A01 T00061004  RH  093%=      5-min Rain = 0
KEA1 150330Z 17009KT 01/M01 A3013 RMK A01 T00051005  RH  093%=      5-min Rain = 0
KEA1 150331Z 17009KT 01/M00 A3012 RMK A01 T00051004  RH  093%=      5-min Rain = 0
KEA1 150332Z 17009KT 01/M00 A3012 RMK A01 T00051004  RH  093%=      5-min Rain = 0
KEA1 150333Z 17009KT 01/M00 A3012 RMK A01 T00051004  RH  093%=      5-min Rain = 0
KEA1 150334Z 17010KT 01/M00 A3012 RMK A01 T00051004  RH  093%=      5-min Rain = 0
KEA1 150335Z 17009KT 01/M00 A3012 RMK A01 T00061004  RH  093%=      5-min Rain = 0
KEA1 150336Z 17009KT 01/M00 A3012 RMK A01 T00061004  RH  093%=      5-min Rain = 0
KEA1 150337Z 17009KT 01/M00 A3012 RMK A01 T00051004  RH  093%=      5-min Rain = 0
KEA1 150338Z 17009KT 01/M01 A3012 RMK A01 T00051005  RH  093%=      5-min Rain = 0
KEA1 150339Z 17009KT 01/M01 A3012 RMK A01 T00051005  RH  093%=      5-min Rain = 0
KEA1 150340Z 17009KT 01/M01 A3012 RMK A01 T00051005  RH  093%=      5-min Rain = 0
KEA1 150341Z 17009KT 01/M01 A3012 RMK A01 T00051005  RH  093%=      5-min Rain = 0
KEA1 150342Z 17009KT 01/M01 A3012 RMK A01 T00051005  RH  093%=      5-min Rain = 0
KEA1 150343Z 17009KT 00/M01 A3012 RMK A01 T00041006  RH  093%=      5-min Rain = 0
KEA1 150344Z 18009KT 00/M01 A3012 RMK A01 T00041006  RH  093%=      5-min Rain = 0
KEA1 150345Z 18010KT 00/M01 A3012 RMK A01 T00041005  RH  093%=      5-min Rain = 0
KEA1 150346Z 18009KT 00/M01 A3012 RMK A01 T00041005  RH  093%=      5-min Rain = 0
KEA1 150347Z 18009KT 01/M00 A3012 RMK A01 T00051004  RH  093%=      5-min Rain = 0
KEA1 150348Z 18010KT 01/M00 A3012 RMK A01 T00061004  RH  093%=      5-min Rain = 0
KEA1 150349Z 18010KT 01/M00 A3012 RMK A01 T00061004  RH  093%=      5-min Rain = 0
KEA1 150350Z 18011KT 01/M00 A3012 RMK A01 T00071003  RH  093%=      5-min Rain = 0
KEA1 150351Z 18010KT 01/M00 A3012 RMK A01 T00081001  RH  093%=      5-min Rain = 0
KEA1 150352Z 18010KT 01/M00 A3012 RMK A01 T00091001  RH  093%=      5-min Rain = 0
KEA1 150353Z 18009KT 01/M00 A3012 RMK A01 T00091002  RH  093%=      5-min Rain = 0
KEA1 150354Z 18010KT 01/M00 A3012 RMK A01 T00091002  RH  092%=      5-min Rain = 0
KEA1 150355Z 18010KT 01/M00 A3012 RMK A01 T00091002  RH  092%=      5-min Rain = 0
KEA1 150356Z 18010KT 01/M00 A3012 RMK A01 T00091002  RH  093%=      5-min Rain = 0
KEA1 150357Z 18010KT 01/M00 A3012 RMK A01 T00101001  RH  092%=      5-min Rain = 0
KEA1 150358Z 18009KT 01/M00 A3012 RMK A01 T00101002  RH  092%=      5-min Rain = 0
KEA1 150359Z 18009KT 01/M00 A3012 RMK A01 T00091002  RH  092%=      5-min Rain = 0
KEA1 150400Z 18010KT 01/M00 A3012 RMK A01 T00101002  RH  092%=      5-min Rain = 0
KEA1 150401Z 18008KT 01/M00 A3012 RMK A01 T00101002  RH  092%=      5-min Rain = 0
KEA1 150402Z 18009KT 01/M00 A3012 RMK A01 T00091002  RH  092%=      5-min Rain = 0
KEA1 150403Z 18010KT 01/M00 A3012 RMK A01 T00101001  RH  092%=      5-min Rain = 0
KEA1 150404Z 18010KT 01/M00 A3012 RMK A01 T00111001  RH  092%=      5-min Rain = 0
KEA1 150405Z 18008KT 01/M00 A3012 RMK A01 T00111001  RH  092%=      5-min Rain = 0
KEA1 150406Z 17007KT 01/M00 A3012 RMK A01 T00111001  RH  092%=      5-min Rain = 0
KEA1 150407Z 18009KT 01/M00 A3012 RMK A01 T00111001  RH  092%=      5-min Rain = 0
KEA1 150408Z 18008KT 01/M00 A3011 RMK A01 T00101002  RH  092%=      5-min Rain = 0
KEA1 150409Z 18010KT 01/M00 A3011 RMK A01 T00101002  RH  092%=      5-min Rain = 0
KEA1 150410Z 18009KT 01/M00 A3011 RMK A01 T00101001  RH  092%=      5-min Rain = 0
KEA1 150411Z 18008KT 01/M00 A3012 RMK A01 T00111001  RH  092%=      5-min Rain = 0
KEA1 150412Z 18008KT 01/M00 A3012 RMK A01 T00111002  RH  092%=      5-min Rain = 0
KEA1 150413Z 18007KT 01/M00 A3012 RMK A01 T00101002  RH  092%=      5-min Rain = 0
KEA1 150414Z 18007KT 01/M00 A3012 RMK A01 T00101002  RH  092%=      5-min Rain = 0
KEA1 150415Z 18008KT 01/M00 A3012 RMK A01 T00101002  RH  092%=      5-min Rain = 0
KEA1 150416Z 18006KT 01/M00 A3012 RMK A01 T00101002  RH  092%=      5-min Rain = 0
KEA1 150417Z 18007KT 01/M00 A3012 RMK A01 T00101002  RH  092%=      5-min Rain = 0
KEA1 150418Z 18007KT 01/M00 A3012 RMK A01 T00101002  RH  092%=      5-min Rain = 0
KEA1 150419Z 18007KT 01/M00 A3012 RMK A01 T00101002  RH  092%=      5-min Rain = 0
KEA1 150420Z 18007KT 01/M00 A3012 RMK A01 T00101002  RH  092%=      5-min Rain = 0
KEA1 150421Z 18007KT 01/M00 A3012 RMK A01 T00101002  RH  092%=      5-min Rain = 0
KEA1 150422Z 18008KT 01/M00 A3012 RMK A01 T00101001  RH  092%=      5-min Rain = 0
KEA1 150423Z 18008KT 01/M00 A3012 RMK A01 T00111001  RH  092%=      5-min Rain = 0
KEA1 150424Z 18007KT 01/00 A3012 RMK A01 T001100-0  RH  092%=      5-min Rain = 0
KEA1 150425Z 18007KT 01/M00 A3012 RMK A01 T00111001  RH  092%=      5-min Rain = 0
KEA1 150426Z 17007KT 01/M00 A3012 RMK A01 T00111001  RH  091%=      5-min Rain = 0
KEA1 150427Z 17009KT 01/M00 A3012 RMK A01 T00111001  RH  092%=      5-min Rain = 0
KEA1 150428Z 17008KT 01/M00 A3012 RMK A01 T00111001  RH  092%=      5-min Rain = 0
KEA1 150429Z 17009KT 01/M00 A3012 RMK A01 T00111001  RH  091%=      5-min Rain = 0
KEA1 150430Z 17008KT 01/M00 A3012 RMK A01 T00121001  RH  091%=      5-min Rain = 0
KEA1 150431Z 17009KT 01/M00 A3012 RMK A01 T00111001  RH  091%=      5-min Rain = 0
KEA1 150432Z 17009KT 01/M00 A3012 RMK A01 T00111002  RH  091%=      5-min Rain = 0
KEA1 150433Z 17008KT 01/M00 A3012 RMK A01 T00101002  RH  091%=      5-min Rain = 0
KEA1 150434Z 17009KT 01/M00 A3012 RMK A01 T00101003  RH  092%=      5-min Rain = 0
KEA1 150435Z 17008KT 01/M00 A3012 RMK A01 T00091003  RH  092%=      5-min Rain = 0
KEA1 150436Z 17009KT 01/M00 A3012 RMK A01 T00091003  RH  092%=      5-min Rain = 0
KEA1 150437Z 16008KT 01/M00 A3012 RMK A01 T00081003  RH  092%=      5-min Rain = 0
KEA1 150438Z 16008KT 01/M00 A3012 RMK A01 T00081004  RH  092%=      5-min Rain = 0
KEA1 150439Z 16008KT 01/M00 A3012 RMK A01 T00071004  RH  092%=      5-min Rain = 0
KEA1 150440Z 16009KT 01/M00 A3012 RMK A01 T00071004  RH  092%=      5-min Rain = 0
KEA1 150441Z 16008KT 01/M01 A3012 RMK A01 T00061005  RH  092%=      5-min Rain = 0
KEA1 150442Z 16009KT 01/M01 A3012 RMK A01 T00061005  RH  093%=      5-min Rain = 0
KEA1 150443Z 16009KT 01/M00 A3012 RMK A01 T00061004  RH  093%=      5-min Rain = 0
KEA1 150444Z 17008KT 01/M00 A3012 RMK A01 T00061004  RH  093%=      5-min Rain = 0
KEA1 150445Z 16008KT 01/M01 A3012 RMK A01 T00051005  RH  093%=      5-min Rain = 0
KEA1 150446Z 17008KT 01/M01 A3012 RMK A01 T00051005  RH  093%=      5-min Rain = 0
KEA1 150447Z 17008KT 01/M01 A3012 RMK A01 T00051005  RH  093%=      5-min Rain = 0
KEA1 150448Z 17008KT 01/M01 A3012 RMK A01 T00051005  RH  093%=      5-min Rain = 0
KEA1 150449Z 17008KT 01/M01 A3012 RMK A01 T00051005  RH  093%=      5-min Rain = 0
KEA1 150450Z 17008KT 01/M01 A3012 RMK A01 T00051005  RH  093%=      5-min Rain = 0
KEA1 150451Z 17008KT 01/M01 A3012 RMK A01 T00051005  RH  093%=      5-min Rain = 0
KEA1 150452Z 17008KT 00/M01 A3012 RMK A01 T00041006  RH  093%=      5-min Rain = 0
KEA1 150453Z 17008KT 00/M01 A3012 RMK A01 T00041006  RH  093%=      5-min Rain = 0
KEA1 150454Z 17008KT 00/M01 A3012 RMK A01 T00031007  RH  093%=      5-min Rain = 0
KEA1 150455Z 17007KT 00/M01 A3012 RMK A01 T00031007  RH  093%=      5-min Rain = 0
KEA1 150456Z 17006KT 00/M01 A3012 RMK A01 T00021007  RH  093%=      5-min Rain = 0
KEA1 150457Z 17006KT 00/M01 A3012 RMK A01 T00021008  RH  093%=      5-min Rain = 0
KEA1 150458Z 17004KT 00/M01 A3012 RMK A01 T00011008  RH  093%=      5-min Rain = 0
KEA1 150459Z 17004KT 00/M01 A3012 RMK A01 T00011008  RH  093%=      5-min Rain = 0
KEA1 150500Z 19002KT 00/M01 A3012 RMK A01 T00011009  RH  094%=      5-min Rain = 0
KEA1 150501Z 19001KT 00/01 A3012 RMK A01 T000000-9  RH  093%=      5-min Rain = 0
KEA1 150502Z 25001KT M00/M01 A3012 RMK A01 T10011010  RH  093%=      5-min Rain = 0
KEA1 150503Z 29001KT M00/M01 A3012 RMK A01 T10021011  RH  093%=      5-min Rain = 0
KEA1 150504Z 30002KT M00/M01 A3012 RMK A01 T10031013  RH  093%=      5-min Rain = 0
KEA1 150505Z 27002KT M00/M01 A3012 RMK A01 T10041014  RH  093%=      5-min Rain = 0
KEA1 150506Z 24003KT M00/M01 A3012 RMK A01 T10041012  RH  094%=      5-min Rain = 0
KEA1 150507Z 22004KT M00/M01 A3012 RMK A01 T10031010  RH  095%=      5-min Rain = 0
KEA1 150508Z 21003KT 00/01 A3012 RMK A01 T00-000-7  RH  095%=      5-min Rain = 0
KEA1 150509Z 27002KT 00/M01 A3012 RMK A01 T00021005  RH  095%=      5-min Rain = 0
KEA1 150510Z 29001KT 00/M01 A3012 RMK A01 T00021006  RH  095%=      5-min Rain = 0
KEA1 150511Z 30002KT 00/01 A3012 RMK A01 T00-000-9  RH  094%=      5-min Rain = 0
KEA1 150512Z 30002KT M00/M01 A3012 RMK A01 T10011010  RH  094%=      5-min Rain = 0
KEA1 150513Z 29002KT M00/M01 A3012 RMK A01 T10011010  RH  094%=      5-min Rain = 0
KEA1 150514Z 28002KT M00/M01 A3012 RMK A01 T10011008  RH  095%=      5-min Rain = 0
KEA1 150515Z 29001KT 00/01 A3012 RMK A01 T00-000-8  RH  095%=      5-min Rain = 0
KEA1 150516Z 26002KT 00/01 A3012 RMK A01 T00-000-8  RH  095%=      5-min Rain = 0
KEA1 150517Z 27002KT 00/M01 A3012 RMK A01 T00011007  RH  095%=      5-min Rain = 0
KEA1 150518Z 26002KT 00/M01 A3012 RMK A01 T00011006  RH  095%=      5-min Rain = 0
KEA1 150519Z 24002KT 00/M01 A3012 RMK A01 T00011007  RH  095%=      5-min Rain = 0
KEA1 150520Z 24003KT 00/01 A3012 RMK A01 T000000-7  RH  095%=      5-min Rain = 0
KEA1 150521Z 24004KT 00/01 A3012 RMK A01 T000000-7  RH  095%=      5-min Rain = 0
KEA1 150522Z 24004KT 00/01 A3012 RMK A01 T000000-7  RH  095%=      5-min Rain = 0
KEA1 150523Z 23004KT 00/01 A3012 RMK A01 T000000-8  RH  095%=      5-min Rain = 0
KEA1 150524Z 24005KT 00/01 A3012 RMK A01 T000000-7  RH  095%=      5-min Rain = 0
KEA1 150525Z 24005KT 00/M01 A3012 RMK A01 T00011006  RH  095%=      5-min Rain = 0
KEA1 150526Z 24006KT 00/M01 A3012 RMK A01 T00011007  RH  094%=      5-min Rain = 0
KEA1 150527Z 23006KT 00/01 A3012 RMK A01 T00-000-9  RH  094%=      5-min Rain = 0
KEA1 150528Z 23006KT 00/01 A3012 RMK A01 T000000-7  RH  095%=      5-min Rain = 0
KEA1 150529Z 22006KT 00/M01 A3011 RMK A01 T00011006  RH  095%=      5-min Rain = 0
KEA1 150530Z 22006KT 00/M00 A3011 RMK A01 T00031004  RH  095%=      5-min Rain = 0
KEA1 150531Z 21006KT 00/M00 A3011 RMK A01 T00031004  RH  095%=      5-min Rain = 0
KEA1 150532Z 21006KT 00/M00 A3011 RMK A01 T00041003  RH  095%=      5-min Rain = 0
KEA1 150533Z 20008KT 01/M00 A3011 RMK A01 T00061002  RH  095%=      5-min Rain = 0
KEA1 150534Z 20009KT 01/00 A3011 RMK A01 T00100003  RH  095%=      5-min Rain = 0
KEA1 150535Z 20008KT 01/01 A3011 RMK A01 T00120005  RH  095%=      5-min Rain = 0
KEA1 150536Z 21008KT 01/01 A3011 RMK A01 T00140005  RH  094%=      5-min Rain = 0
KEA1 150537Z 21008KT 01/01 A3011 RMK A01 T00140005  RH  094%=      5-min Rain = 0
KEA1 150538Z 21007KT 02/01 A3011 RMK A01 T00150005  RH  093%=      5-min Rain = 0
KEA1 150539Z 21007KT 02/00 A3011 RMK A01 T00150004  RH  093%=      5-min Rain = 0
KEA1 150540Z 21007KT 02/00 A3011 RMK A01 T00150003  RH  092%=      5-min Rain = 0
KEA1 150541Z 21007KT 02/00 A3011 RMK A01 T00150003  RH  092%=      5-min Rain = 0
KEA1 150542Z 21006KT 01/00 A3011 RMK A01 T00140002  RH  092%=      5-min Rain = 0
KEA1 150543Z 21007KT 01/00 A3011 RMK A01 T00140002  RH  092%=      5-min Rain = 0
KEA1 150544Z 21007KT 01/00 A3011 RMK A01 T00130002  RH  092%=      5-min Rain = 0
KEA1 150545Z 21007KT 01/00 A3011 RMK A01 T00140002  RH  092%=      5-min Rain = 0
KEA1 150546Z 21007KT 01/00 A3011 RMK A01 T00140002  RH  092%=      5-min Rain = 0
KEA1 150547Z 21007KT 01/00 A3011 RMK A01 T00140003  RH  092%=      5-min Rain = 0
KEA1 150548Z 21007KT 02/00 A3011 RMK A01 T00160004  RH  092%=      5-min Rain = 0
KEA1 150549Z 22006KT 02/01 A3011 RMK A01 T00180005  RH  091%=      5-min Rain = 0
KEA1 150550Z 21007KT 02/00 A3011 RMK A01 T00180004  RH  091%=      5-min Rain = 0
KEA1 150551Z 21007KT 02/00 A3011 RMK A01 T00170004  RH  091%=      5-min Rain = 0
KEA1 150552Z 21007KT 02/00 A3011 RMK A01 T00170004  RH  091%=      5-min Rain = 0
KEA1 150553Z 20007KT 02/00 A3011 RMK A01 T00170004  RH  091%=      5-min Rain = 0
KEA1 150554Z 21007KT 02/00 A3011 RMK A01 T00170004  RH  091%=      5-min Rain = 0
KEA1 150555Z 21007KT 02/00 A3011 RMK A01 T00180004  RH  090%=      5-min Rain = 0
KEA1 150556Z 21008KT 02/00 A3011 RMK A01 T00180003  RH  090%=      5-min Rain = 0
KEA1 150557Z 21007KT 02/00 A3011 RMK A01 T00170003  RH  090%=      5-min Rain = 0
KEA1 150558Z 22005KT 02/00 A3011 RMK A01 T00170004  RH  091%=      5-min Rain = 0
KEA1 150559Z 23004KT 02/00 A3011 RMK A01 T00160001  RH  090%=      5-min Rain = 0

Page generated in 0.1842 seconds.